Wetterdaten: Samstag, 07.11.2020
Datum Zeit Temp. Aussen Temp. o. S. Temp +5cm Feuchte Auss Luftdruck Regen Sonnenschein Regendauer Solar Windben Empfang
07.11.2020 00:00 7,0 C 6,1 C 5,0 C 74 % 1026,9 hPa 0,0 l/m 0 min 0 min 0 W/m 16,1 km/h (3 Bft) 97,83 %
07.11.2020 00:02 7,0 C 6,1 C 5,0 C 74 % 1026,9 hPa 0,0 l/m 0 min 0 min 0 W/m 19,3 km/h (3 Bft) 97,37 %
07.11.2020 00:04 7,0 C 6,1 C 5,0 C 74 % 1026,9 hPa 0,0 l/m 0 min 0 min 0 W/m 19,3 km/h (3 Bft) 100,00 %
07.11.2020 00:08 7,0 C 6,7 C 5,0 C 73 % 1026,8 hPa 0,0 l/m 0 min 0 min 0 W/m 29,0 km/h (5 Bft) 98,94 %
07.11.2020 00:10 7,0 C 6,1 C 5,0 C 73 % 1026,7 hPa 0,0 l/m 0 min 0 min 0 W/m 12,9 km/h (3 Bft) 100,00 %
07.11.2020 00:12 7,0 C 6,1 C 5,0 C 73 % 1026,8 hPa 0,0 l/m 0 min 0 min 0 W/m 19,3 km/h (3 Bft) 100,00 %
07.11.2020 00:14 7,0 C 6,1 C 5,0 C 73 % 1026,8 hPa 0,0 l/m 0 min 0 min 0 W/m 16,1 km/h (3 Bft) 95,74 %
07.11.2020 00:16 7,0 C 6,1 C 5,0 C 73 % 1026,7 hPa 0,0 l/m 0 min 0 min 0 W/m 19,3 km/h (3 Bft) 100,00 %
07.11.2020 00:18 7,0 C 6,1 C 5,0 C 73 % 1026,7 hPa 0,0 l/m 0 min 0 min 0 W/m 16,1 km/h (3 Bft) 97,87 %
07.11.2020 00:20 7,0 C 6,7 C 5,0 C 73 % 1026,7 hPa 0,0 l/m 0 min 0 min 0 W/m 32,2 km/h (5 Bft) 100,00 %
07.11.2020 00:22 7,0 C 6,1 C 5,0 C 73 % 1026,7 hPa 0,0 l/m 0 min 0 min 0 W/m 16,1 km/h (3 Bft) 97,83 %
07.11.2020 00:24 7,0 C 6,1 C 5,0 C 73 % 1026,6 hPa 0,0 l/m 0 min 0 min 0 W/m 16,1 km/h (3 Bft) 100,00 %
07.11.2020 00:26 7,0 C 6,1 C 5,0 C 73 % 1026,6 hPa 0,0 l/m 0 min 0 min 0 W/m 19,3 km/h (3 Bft) 100,00 %
07.11.2020 00:28 7,0 C 6,1 C 5,0 C 73 % 1026,5 hPa 0,0 l/m 0 min 0 min 0 W/m 16,1 km/h (3 Bft) 100,00 %
07.11.2020 00:30 7,0 C 6,1 C 5,0 C 73 % 1026,5 hPa 0,0 l/m 0 min 0 min 0 W/m 22,5 km/h (4 Bft) 100,00 %
07.11.2020 00:32 7,0 C 6,1 C 5,0 C 73 % 1026,5 hPa 0,0 l/m 0 min 0 min 0 W/m 19,3 km/h (3 Bft) 100,00 %
07.11.2020 00:34 7,0 C 6,1 C 5,0 C 73 % 1026,5 hPa 0,0 l/m 0 min 0 min 0 W/m 16,1 km/h (3 Bft) 100,00 %
07.11.2020 00:36 6,9 C 6,1 C 5,0 C 73 % 1026,5 hPa 0,0 l/m 0 min 0 min 0 W/m 16,1 km/h (3 Bft) 100,00 %
07.11.2020 00:38 6,9 C 6,1 C 5,0 C 73 % 1026,5 hPa 0,0 l/m 0 min 0 min 0 W/m 19,3 km/h (3 Bft) 100,00 %
07.11.2020 00:40 6,9 C 6,1 C 5,0 C 74 % 1026,4 hPa 0,0 l/m 0 min 0 min 0 W/m 16,1 km/h (3 Bft) 100,00 %
07.11.2020 00:42 6,9 C 6,1 C 5,0 C 74 % 1026,5 hPa 0,0 l/m 0 min 0 min 0 W/m 19,3 km/h (3 Bft) 95,74 %
07.11.2020 00:44 6,9 C 6,1 C 5,0 C 74 % 1026,5 hPa 0,0 l/m 0 min 0 min 0 W/m 22,5 km/h (4 Bft) 100,00 %
07.11.2020 00:46 6,9 C 6,1 C 5,0 C 74 % 1026,4 hPa 0,0 l/m 0 min 0 min 0 W/m 19,3 km/h (3 Bft) 100,00 %
07.11.2020 00:48 6,8 C 6,1 C 5,0 C 74 % 1026,4 hPa 0,0 l/m 0 min 0 min 0 W/m 22,5 km/h (4 Bft) 97,87 %
07.11.2020 00:50 6,8 C 6,1 C 5,0 C 74 % 1026,4 hPa 0,0 l/m 0 min 0 min 0 W/m 19,3 km/h (3 Bft) 97,87 %
07.11.2020 00:52 6,8 C 6,1 C 5,0 C 74 % 1026,4 hPa 0,0 l/m 0 min 0 min 0 W/m 19,3 km/h (3 Bft) 100,00 %
07.11.2020 00:54 6,8 C 6,1 C 5,0 C 74 % 1026,4 hPa 0,0 l/m 0 min 0 min 0 W/m 29,0 km/h (5 Bft) 100,00 %
07.11.2020 00:56 6,8 C 6,1 C 5,0 C 74 % 1026,4 hPa 0,0 l/m 0 min 0 min 0 W/m 25,7 km/h (4 Bft) 95,74 %
07.11.2020 00:58 6,8 C 6,1 C 5,0 C 74 % 1026,4 hPa 0,0 l/m 0 min 0 min 0 W/m 22,5 km/h (4 Bft) 97,83 %
07.11.2020 01:00 6,8 C 6,1 C 5,0 C 74 % 1026,5 hPa 0,0 l/m 0 min 0 min 0 W/m 22,5 km/h (4 Bft) 87,23 %
07.11.2020 01:02 6,8 C 6,1 C 5,0 C 74 % 1026,4 hPa 0,0 l/m 0 min 0 min 0 W/m 25,7 km/h (4 Bft) 67,39 %
07.11.2020 01:04 6,8 C 6,1 C 5,0 C 74 % 1026,4 hPa 0,0 l/m 0 min 0 min 0 W/m 22,5 km/h (4 Bft) 95,74 %
07.11.2020 01:06 6,8 C 6,1 C 5,0 C 74 % 1026,4 hPa 0,0 l/m 0 min 0 min 0 W/m 25,7 km/h (4 Bft) 100,00 %
07.11.2020 01:08 6,8 C 6,1 C 5,0 C 74 % 1026,4 hPa 0,0 l/m 0 min 0 min 0 W/m 22,5 km/h (4 Bft) 100,00 %
07.11.2020 01:10 6,9 C 6,1 C 5,0 C 74 % 1026,4 hPa 0,0 l/m 0 min 0 min 0 W/m 16,1 km/h (3 Bft) 97,83 %
07.11.2020 01:12 6,8 C 6,1 C 5,0 C 74 % 1026,4 hPa 0,0 l/m 0 min 0 min 0 W/m 25,7 km/h (4 Bft) 95,74 %
07.11.2020 01:14 6,9 C 6,1 C 5,0 C 74 % 1026,4 hPa 0,0 l/m 0 min 0 min 0 W/m 19,3 km/h (3 Bft) 97,87 %
07.11.2020 01:16 6,9 C 6,1 C 5,0 C 74 % 1026,4 hPa 0,0 l/m 0 min 0 min 0 W/m 22,5 km/h (4 Bft) 97,87 %
07.11.2020 01:18 6,9 C 6,1 C 5,0 C 74 % 1026,4 hPa 0,0 l/m 0 min 0 min 0 W/m 22,5 km/h (4 Bft) 97,87 %
07.11.2020 01:20 6,9 C 6,1 C 5,0 C 74 % 1026,4 hPa 0,0 l/m 0 min 0 min 0 W/m 22,5 km/h (4 Bft) 97,83 %
07.11.2020 01:22 6,9 C 6,1 C 5,0 C 74 % 1026,4 hPa 0,0 l/m 0 min 0 min 0 W/m 22,5 km/h (4 Bft) 95,74 %
07.11.2020 01:24 6,9 C 6,1 C 5,0 C 74 % 1026,3 hPa 0,0 l/m 0 min 0 min 0 W/m 12,9 km/h (3 Bft) 93,62 %
07.11.2020 01:26 6,9 C 6,1 C 5,0 C 74 % 1026,3 hPa 0,0 l/m 0 min 0 min 0 W/m 19,3 km/h (3 Bft) 97,87 %
07.11.2020 01:28 6,9 C 6,1 C 5,0 C 74 % 1026,3 hPa 0,0 l/m 0 min 0 min 0 W/m 6,4 km/h (2 Bft) 97,87 %
07.11.2020 01:30 6,8 C 6,1 C 5,0 C 75 % 1026,3 hPa 0,0 l/m 0 min 0 min 0 W/m 19,3 km/h (3 Bft) 97,87 %
07.11.2020 01:32 6,8 C 6,1 C 5,0 C 75 % 1026,3 hPa 0,0 l/m 0 min 0 min 0 W/m 12,9 km/h (3 Bft) 97,83 %
07.11.2020 01:34 6,8 C 6,1 C 4,5 C 75 % 1026,3 hPa 0,0 l/m 0 min 0 min 0 W/m 6,4 km/h (2 Bft) 95,74 %
07.11.2020 01:36 6,8 C 6,1 C 4,5 C 75 % 1026,3 hPa 0,0 l/m 0 min 0 min 0 W/m 12,9 km/h (3 Bft) 95,74 %
07.11.2020 01:38 6,8 C 5,6 C 4,5 C 75 % 1026,3 hPa 0,0 l/m 0 min 0 min 0 W/m 12,9 km/h (3 Bft) 97,87 %
07.11.2020 01:40 6,8 C 6,1 C 5,0 C 75 % 1026,2 hPa 0,0 l/m 0 min 0 min 0 W/m 19,3 km/h (3 Bft) 97,87 %
07.11.2020 01:42 6,8 C 6,1 C 5,0 C 75 % 1026,2 hPa 0,0 l/m 0 min 0 min 0 W/m 16,1 km/h (3 Bft) 95,74 %
07.11.2020 01:44 6,7 C 6,1 C 5,0 C 75 % 1026,2 hPa 0,0 l/m 0 min 0 min 0 W/m 16,1 km/h (3 Bft) 97,83 %
07.11.2020 01:46 6,7 C 6,1 C 5,0 C 75 % 1026,2 hPa 0,0 l/m 0 min 0 min 0 W/m 12,9 km/h (3 Bft) 97,87 %
07.11.2020 01:48 6,7 C 6,1 C 4,5 C 75 % 1026,2 hPa 0,0 l/m 0 min 0 min 0 W/m 16,1 km/h (3 Bft) 97,87 %
07.11.2020 01:50 6,7 C 6,1 C 4,5 C 76 % 1026,2 hPa 0,0 l/m 0 min 0 min 0 W/m 12,9 km/h (3 Bft) 97,87 %
07.11.2020 01:52 6,7 C 6,1 C 5,0 C 76 % 1026,2 hPa 0,0 l/m 0 min 0 min 0 W/m 19,3 km/h (3 Bft) 97,87 %
07.11.2020 01:54 6,7 C 6,1 C 5,0 C 76 % 1026,2 hPa 0,0 l/m 0 min 0 min 0 W/m 19,3 km/h (3 Bft) 97,87 %
07.11.2020 01:56 6,7 C 6,1 C 5,0 C 76 % 1026,2 hPa 0,0 l/m 0 min 0 min 0 W/m 12,9 km/h (3 Bft) 97,83 %
07.11.2020 01:58 6,6 C 6,1 C 4,5 C 76 % 1026,2 hPa 0,0 l/m 0 min 0 min 0 W/m 12,9 km/h (3 Bft) 100,00 %
07.11.2020 02:00 6,6 C 6,1 C 5,0 C 76 % 1026,2 hPa 0,0 l/m 0 min 0 min 0 W/m 16,1 km/h (3 Bft) 100,00 %
07.11.2020 02:02 6,6 C 6,1 C 5,0 C 76 % 1026,3 hPa 0,0 l/m 0 min 0 min 0 W/m 12,9 km/h (3 Bft) 100,00 %
07.11.2020 02:04 6,6 C 6,1 C 5,0 C 76 % 1026,3 hPa 0,0 l/m 0 min 0 min 0 W/m 22,5 km/h (4 Bft) 100,00 %
07.11.2020 02:06 6,6 C 6,1 C 4,5 C 76 % 1026,3 hPa 0,0 l/m 0 min 0 min 0 W/m 16,1 km/h (3 Bft) 100,00 %
07.11.2020 02:08 6,6 C 6,1 C 4,5 C 76 % 1026,2 hPa 0,0 l/m 0 min 0 min 0 W/m 6,4 km/h (2 Bft) 97,83 %
07.11.2020 02:10 6,6 C 5,6 C 4,5 C 76 % 1026,2 hPa 0,0 l/m 0 min 0 min 0 W/m 6,4 km/h (2 Bft) 95,74 %
07.11.2020 02:12 6,6 C 5,6 C 4,5 C 76 % 1026,3 hPa 0,0 l/m 0 min 0 min 0 W/m 12,9 km/h (3 Bft) 97,87 %
07.11.2020 02:14 6,6 C 5,6 C 4,5 C 77 % 1026,3 hPa 0,0 l/m 0 min 0 min 0 W/m 0,0 km/h (0 Bft) 97,87 %
07.11.2020 02:16 6,6 C 5,6 C 4,5 C 77 % 1026,3 hPa 0,0 l/m 0 min 0 min 0 W/m 6,4 km/h (2 Bft) 93,62 %
07.11.2020 02:18 6,6 C 5,6 C 4,5 C 76 % 1026,2 hPa 0,0 l/m 0 min 0 min 0 W/m 6,4 km/h (2 Bft) 95,74 %
07.11.2020 02:20 6,6 C 5,6 C 4,5 C 77 % 1026,3 hPa 0,0 l/m 0 min 0 min 0 W/m 3,2 km/h (1 Bft) 95,65 %
07.11.2020 02:22 6,5 C 5,6 C 4,5 C 77 % 1026,3 hPa 0,0 l/m 0 min 0 min 0 W/m 12,9 km/h (3 Bft) 93,62 %
07.11.2020 02:24 6,5 C 5,6 C 4,5 C 77 % 1026,3 hPa 0,0 l/m 0 min 0 min 0 W/m 12,9 km/h (3 Bft) 95,74 %
07.11.2020 02:26 6,5 C 5,6 C 4,5 C 77 % 1026,2 hPa 0,0 l/m 0 min 0 min 0 W/m 9,7 km/h (2 Bft) 93,62 %
07.11.2020 02:28 6,5 C 5,6 C 4,5 C 77 % 1026,2 hPa 0,0 l/m 0 min 0 min 0 W/m 6,4 km/h (2 Bft) 95,74 %
07.11.2020 02:30 6,5 C 5,6 C 4,5 C 77 % 1026,2 hPa 0,0 l/m 0 min 0 min 0 W/m 12,9 km/h (3 Bft) 97,83 %
07.11.2020 02:32 6,5 C 5,6 C 4,5 C 77 % 1026,2 hPa 0,0 l/m 0 min 0 min 0 W/m 16,1 km/h (3 Bft) 95,74 %
07.11.2020 02:34 6,5 C 5,6 C 4,5 C 78 % 1026,2 hPa 0,0 l/m 0 min 0 min 0 W/m 12,9 km/h (3 Bft) 95,74 %
07.11.2020 02:36 6,4 C 5,6 C 4,5 C 78 % 1026,2 hPa 0,0 l/m 0 min 0 min 0 W/m 12,9 km/h (3 Bft) 95,74 %
07.11.2020 02:38 6,4 C 5,6 C 4,5 C 78 % 1026,3 hPa 0,0 l/m 0 min 0 min 0 W/m 12,9 km/h (3 Bft) 93,62 %
07.11.2020 02:40 6,4 C 5,6 C 4,5 C 78 % 1026,3 hPa 0,0 l/m 0 min 0 min 0 W/m 6,4 km/h (2 Bft) 95,74 %
07.11.2020 02:42 6,4 C 5,6 C 4,5 C 78 % 1026,2 hPa 0,0 l/m 0 min 0 min 0 W/m 6,4 km/h (2 Bft) 95,65 %
07.11.2020 02:44 6,4 C 5,6 C 4,5 C 78 % 1026,2 hPa 0,0 l/m 0 min 0 min 0 W/m 12,9 km/h (3 Bft) 95,74 %
07.11.2020 02:46 6,4 C 5,6 C 4,5 C 78 % 1026,2 hPa 0,0 l/m 0 min 0 min 0 W/m 6,4 km/h (2 Bft) 95,74 %
07.11.2020 02:48 6,4 C 5,6 C 4,5 C 78 % 1026,2 hPa 0,0 l/m 0 min 0 min 0 W/m 3,2 km/h (1 Bft) 95,74 %
07.11.2020 02:50 6,4 C 5,6 C 4,5 C 78 % 1026,2 hPa 0,0 l/m 0 min 0 min 0 W/m 6,4 km/h (2 Bft) 95,74 %
07.11.2020 02:52 6,4 C 5,6 C 4,5 C 78 % 1026,3 hPa 0,0 l/m 0 min 0 min 0 W/m 3,2 km/h (1 Bft) 95,74 %
07.11.2020 02:54 6,4 C 5,6 C 4,5 C 78 % 1026,2 hPa 0,0 l/m 0 min 0 min 0 W/m 19,3 km/h (3 Bft) 93,48 %
07.11.2020 02:56 6,4 C 5,6 C 4,5 C 79 % 1026,2 hPa 0,0 l/m 0 min 0 min 0 W/m 12,9 km/h (3 Bft) 95,74 %
07.11.2020 02:58 6,3 C 5,6 C 4,5 C 79 % 1026,2 hPa 0,0 l/m 0 min 0 min 0 W/m 12,9 km/h (3 Bft) 95,74 %
07.11.2020 03:00 6,3 C 5,6 C 4,5 C 79 % 1026,2 hPa 0,0 l/m 0 min 0 min 0 W/m 3,2 km/h (1 Bft) 97,87 %
07.11.2020 03:02 6,3 C 5,6 C 4,5 C 79 % 1026,2 hPa 0,0 l/m 0 min 0 min 0 W/m 6,4 km/h (2 Bft) 97,87 %
07.11.2020 03:04 6,3 C 5,6 C 4,5 C 79 % 1026,2 hPa 0,0 l/m 0 min 0 min 0 W/m 6,4 km/h (2 Bft) 97,87 %
07.11.2020 03:06 6,3 C 5,6 C 3,9 C 79 % 1026,1 hPa 0,0 l/m 0 min 0 min 0 W/m 12,9 km/h (3 Bft) 97,83 %
07.11.2020 03:08 6,3 C 5,6 C 4,5 C 79 % 1026,2 hPa 0,0 l/m 0 min 0 min 0 W/m 16,1 km/h (3 Bft) 95,74 %
07.11.2020 03:10 6,2 C 5,6 C 4,5 C 79 % 1026,1 hPa 0,0 l/m 0 min 0 min 0 W/m 6,4 km/h (2 Bft) 95,74 %
07.11.2020 03:12 6,2 C 5,0 C 4,5 C 79 % 1026,2 hPa 0,0 l/m 0 min 0 min 0 W/m 6,4 km/h (2 Bft) 97,87 %
07.11.2020 03:14 6,2 C 5,0 C 3,9 C 79 % 1026,1 hPa 0,0 l/m 0 min 0 min 0 W/m 16,1 km/h (3 Bft) 97,87 %
07.11.2020 03:16 6,1 C 5,0 C 3,9 C 79 % 1026,1 hPa 0,0 l/m 0 min 0 min 0 W/m 6,4 km/h (2 Bft) 95,65 %
07.11.2020 03:18 6,1 C 5,0 C 3,9 C 80 % 1026,1 hPa 0,0 l/m 0 min 0 min 0 W/m 6,4 km/h (2 Bft) 97,87 %
07.11.2020 03:20 6,1 C 5,0 C 3,9 C 80 % 1026,1 hPa 0,0 l/m 0 min 0 min 0 W/m 12,9 km/h (3 Bft) 97,87 %
07.11.2020 03:22 6,1 C 5,0 C 3,9 C 80 % 1026,1 hPa 0,0 l/m 0 min 0 min 0 W/m 16,1 km/h (3 Bft) 95,74 %
07.11.2020 03:24 6,1 C 5,0 C 3,9 C 80 % 1026,1 hPa 0,0 l/m 0 min 0 min 0 W/m 12,9 km/h (3 Bft) 95,74 %
07.11.2020 03:26 6,1 C 5,0 C 3,9 C 80 % 1026,0 hPa 0,0 l/m 0 min 0 min 0 W/m 3,2 km/h (1 Bft) 97,87 %
07.11.2020 03:28 6,0 C 5,0 C 3,9 C 80 % 1026,0 hPa 0,0 l/m 0 min 0 min 0 W/m 3,2 km/h (1 Bft) 97,83 %
07.11.2020 03:30 6,0 C 5,0 C 3,9 C 80 % 1026,0 hPa 0,0 l/m 0 min 0 min 0 W/m 0,0 km/h (0 Bft) 97,87 %
07.11.2020 03:32 6,0 C 5,0 C 3,9 C 80 % 1026,0 hPa 0,0 l/m 0 min 0 min 0 W/m 3,2 km/h (1 Bft) 97,87 %
07.11.2020 03:34 6,0 C 5,0 C 3,9 C 80 % 1025,9 hPa 0,0 l/m 0 min 0 min 0 W/m 3,2 km/h (1 Bft) 97,87 %
07.11.2020 03:36 6,0 C 5,0 C 3,9 C 80 % 1026,0 hPa 0,0 l/m 0 min 0 min 0 W/m 12,9 km/h (3 Bft) 97,87 %
07.11.2020 03:38 6,0 C 5,0 C 3,9 C 80 % 1025,9 hPa 0,0 l/m 0 min 0 min 0 W/m 16,1 km/h (3 Bft) 100,00 %
07.11.2020 03:40 6,0 C 5,0 C 3,9 C 80 % 1025,9 hPa 0,0 l/m 0 min 0 min 0 W/m 16,1 km/h (3 Bft) 95,74 %
07.11.2020 03:42 6,0 C 5,0 C 3,9 C 81 % 1025,9 hPa 0,0 l/m 0 min 0 min 0 W/m 12,9 km/h (3 Bft) 97,87 %
07.11.2020 03:44 6,0 C 5,6 C 3,9 C 81 % 1025,9 hPa 0,0 l/m 0 min 0 min 0 W/m 16,1 km/h (3 Bft) 97,87 %
07.11.2020 03:46 6,0 C 5,6 C 3,9 C 81 % 1025,9 hPa 0,0 l/m 0 min 0 min 0 W/m 6,4 km/h (2 Bft) 97,87 %
07.11.2020 03:48 5,9 C 5,0 C 3,9 C 81 % 1025,9 hPa 0,0 l/m 0 min 0 min 0 W/m 0,0 km/h (0 Bft) 95,74 %
07.11.2020 03:50 5,9 C 5,6 C 4,5 C 81 % 1025,9 hPa 0,0 l/m 0 min 0 min 0 W/m 3,2 km/h (1 Bft) 95,74 %
07.11.2020 03:52 5,9 C 5,6 C 4,5 C 81 % 1025,9 hPa 0,0 l/m 0 min 0 min 0 W/m 12,9 km/h (3 Bft) 95,65 %
07.11.2020 03:54 5,9 C 5,6 C 4,5 C 81 % 1025,8 hPa 0,0 l/m 0 min 0 min 0 W/m 16,1 km/h (3 Bft) 97,87 %
07.11.2020 03:56 5,9 C 5,6 C 4,5 C 81 % 1025,8 hPa 0,0 l/m 0 min 0 min 0 W/m 16,1 km/h (3 Bft) 97,87 %
07.11.2020 03:58 5,9 C 5,6 C 4,5 C 81 % 1025,7 hPa 0,0 l/m 0 min 0 min 0 W/m 6,4 km/h (2 Bft) 93,62 %
07.11.2020 04:00 5,9 C 5,6 C 4,5 C 81 % 1025,7 hPa 0,0 l/m 0 min 0 min 0 W/m 19,3 km/h (3 Bft) 97,87 %
07.11.2020 04:02 6,0 C 5,6 C 4,5 C 81 % 1025,7 hPa 0,0 l/m 0 min 0 min 0 W/m 16,1 km/h (3 Bft) 100,00 %
07.11.2020 04:04 6,0 C 5,6 C 4,5 C 81 % 1025,7 hPa 0,0 l/m 0 min 0 min 0 W/m 16,1 km/h (3 Bft) 97,92 %
07.11.2020 04:06 6,0 C 5,6 C 4,5 C 81 % 1025,7 hPa 0,0 l/m 0 min 0 min 0 W/m 12,9 km/h (3 Bft) 97,87 %
07.11.2020 04:08 6,0 C 5,6 C 4,5 C 81 % 1025,7 hPa 0,0 l/m 0 min 0 min 0 W/m 19,3 km/h (3 Bft) 97,87 %
07.11.2020 04:10 6,0 C 5,6 C 4,5 C 81 % 1025,7 hPa 0,0 l/m 0 min 0 min 0 W/m 19,3 km/h (3 Bft) 95,74 %
07.11.2020 04:12 6,0 C 5,6 C 4,5 C 81 % 1025,7 hPa 0,0 l/m 0 min 0 min 0 W/m 22,5 km/h (4 Bft) 97,87 %
07.11.2020 04:14 6,0 C 5,6 C 4,5 C 81 % 1025,8 hPa 0,0 l/m 0 min 0 min 0 W/m 19,3 km/h (3 Bft) 97,83 %
07.11.2020 04:16 6,0 C 5,6 C 4,5 C 81 % 1025,7 hPa 0,0 l/m 0 min 0 min 0 W/m 16,1 km/h (3 Bft) 97,87 %
07.11.2020 04:18 6,0 C 5,6 C 4,5 C 81 % 1025,8 hPa 0,0 l/m 0 min 0 min 0 W/m 19,3 km/h (3 Bft) 97,87 %
07.11.2020 04:20 6,1 C 5,6 C 4,5 C 81 % 1025,8 hPa 0,0 l/m 0 min 0 min 0 W/m 16,1 km/h (3 Bft) 95,74 %
07.11.2020 04:22 6,1 C 5,6 C 4,5 C 81 % 1025,7 hPa 0,0 l/m 0 min 0 min 0 W/m 6,4 km/h (2 Bft) 100,00 %
07.11.2020 04:24 6,1 C 5,6 C 4,5 C 81 % 1025,7 hPa 0,0 l/m 0 min 0 min 0 W/m 19,3 km/h (3 Bft) 100,00 %
07.11.2020 04:26 6,1 C 5,6 C 4,5 C 80 % 1025,7 hPa 0,0 l/m 0 min 0 min 0 W/m 29,0 km/h (5 Bft) 100,00 %
07.11.2020 04:28 6,1 C 5,6 C 4,5 C 80 % 1025,8 hPa 0,0 l/m 0 min 0 min 0 W/m 3,2 km/h (1 Bft) 100,00 %
07.11.2020 04:30 6,1 C 5,6 C 4,5 C 80 % 1025,7 hPa 0,0 l/m 0 min 0 min 0 W/m 12,9 km/h (3 Bft) 97,87 %
07.11.2020 04:32 6,1 C 5,6 C 4,5 C 80 % 1025,7 hPa 0,0 l/m 0 min 0 min 0 W/m 16,1 km/h (3 Bft) 93,62 %
07.11.2020 04:34 6,1 C 5,6 C 4,5 C 80 % 1025,7 hPa 0,0 l/m 0 min 0 min 0 W/m 19,3 km/h (3 Bft) 97,87 %
07.11.2020 04:36 6,1 C 5,6 C 4,5 C 80 % 1025,7 hPa 0,0 l/m 0 min 0 min 0 W/m 9,7 km/h (2 Bft) 100,00 %
07.11.2020 04:38 6,2 C 5,6 C 4,5 C 80 % 1025,6 hPa 0,0 l/m 0 min 0 min 0 W/m 19,3 km/h (3 Bft) 100,00 %
07.11.2020 04:40 6,2 C 5,6 C 4,5 C 80 % 1025,6 hPa 0,0 l/m 0 min 0 min 0 W/m 19,3 km/h (3 Bft) 100,00 %
07.11.2020 04:42 6,2 C 5,6 C 4,5 C 80 % 1025,6 hPa 0,0 l/m 0 min 0 min 0 W/m 12,9 km/h (3 Bft) 100,00 %
07.11.2020 04:44 6,2 C 5,6 C 4,5 C 80 % 1025,6 hPa 0,0 l/m 0 min 0 min 0 W/m 6,4 km/h (2 Bft) 100,00 %
07.11.2020 04:46 6,3 C 5,6 C 4,5 C 80 % 1025,7 hPa 0,0 l/m 0 min 0 min 0 W/m 12,9 km/h (3 Bft) 100,00 %
07.11.2020 04:48 6,3 C 5,6 C 4,5 C 80 % 1025,6 hPa 0,0 l/m 0 min 0 min 0 W/m 19,3 km/h (3 Bft) 100,00 %
07.11.2020 04:50 6,3 C 5,6 C 4,5 C 80 % 1025,7 hPa 0,0 l/m 0 min 0 min 0 W/m 3,2 km/h (1 Bft) 100,00 %
07.11.2020 04:52 6,3 C 5,6 C 4,5 C 80 % 1025,7 hPa 0,0 l/m 0 min 0 min 0 W/m 19,3 km/h (3 Bft) 100,00 %
07.11.2020 04:54 6,3 C 5,6 C 4,5 C 80 % 1025,7 hPa 0,0 l/m 0 min 0 min 0 W/m 19,3 km/h (3 Bft) 97,87 %
07.11.2020 04:56 6,3 C 5,6 C 4,5 C 80 % 1025,7 hPa 0,0 l/m 0 min 0 min 0 W/m 16,1 km/h (3 Bft) 100,00 %
07.11.2020 04:58 6,3 C 5,6 C 4,5 C 80 % 1025,7 hPa 0,0 l/m 0 min 0 min 0 W/m 25,7 km/h (4 Bft) 100,00 %
07.11.2020 05:00 6,3 C 5,6 C 4,5 C 80 % 1025,6 hPa 0,0 l/m 0 min 0 min 0 W/m 16,1 km/h (3 Bft) 100,00 %
07.11.2020 05:02 6,3 C 5,6 C 4,5 C 81 % 1025,7 hPa 0,0 l/m 0 min 0 min 0 W/m 6,4 km/h (2 Bft) 100,00 %
07.11.2020 05:04 6,3 C 5,6 C 4,5 C 81 % 1025,6 hPa 0,0 l/m 0 min 0 min 0 W/m 12,9 km/h (3 Bft) 97,87 %
07.11.2020 05:06 6,3 C 5,6 C 4,5 C 81 % 1025,6 hPa 0,0 l/m 0 min 0 min 0 W/m 12,9 km/h (3 Bft) 97,87 %
07.11.2020 05:08 6,3 C 5,6 C 4,5 C 81 % 1025,6 hPa 0,0 l/m 0 min 0 min 0 W/m 19,3 km/h (3 Bft) 97,87 %
07.11.2020 05:10 6,3 C 5,6 C 4,5 C 81 % 1025,6 hPa 0,0 l/m 0 min 0 min 0 W/m 16,1 km/h (3 Bft) 97,87 %
07.11.2020 05:12 6,3 C 5,6 C 4,5 C 81 % 1025,5 hPa 0,0 l/m 0 min 0 min 0 W/m 19,3 km/h (3 Bft) 95,65 %
07.11.2020 05:14 6,4 C 5,6 C 4,5 C 81 % 1025,5 hPa 0,0 l/m 0 min 0 min 0 W/m 12,9 km/h (3 Bft) 95,74 %
07.11.2020 05:16 6,4 C 5,6 C 4,5 C 81 % 1025,5 hPa 0,0 l/m 0 min 0 min 0 W/m 22,5 km/h (4 Bft) 95,74 %
07.11.2020 05:18 6,4 C 5,6 C 4,5 C 81 % 1025,5 hPa 0,0 l/m 0 min 0 min 0 W/m 22,5 km/h (4 Bft) 97,87 %
07.11.2020 05:20 6,4 C 5,6 C 4,5 C 81 % 1025,5 hPa 0,0 l/m 0 min 0 min 0 W/m 16,1 km/h (3 Bft) 97,87 %
07.11.2020 05:22 6,4 C 5,6 C 4,5 C 81 % 1025,6 hPa 0,0 l/m 0 min 0 min 0 W/m 19,3 km/h (3 Bft) 97,87 %
07.11.2020 05:24 6,4 C 5,6 C 4,5 C 81 % 1025,5 hPa 0,0 l/m 0 min 0 min 0 W/m 16,1 km/h (3 Bft) 97,83 %
07.11.2020 05:26 6,4 C 5,6 C 4,5 C 81 % 1025,5 hPa 0,0 l/m 0 min 0 min 0 W/m 3,2 km/h (1 Bft) 97,87 %
07.11.2020 05:28 6,4 C 5,6 C 4,5 C 81 % 1025,5 hPa 0,0 l/m 0 min 0 min 0 W/m 16,1 km/h (3 Bft) 95,74 %
07.11.2020 05:30 6,4 C 5,6 C 4,5 C 81 % 1025,5 hPa 0,0 l/m 0 min 0 min 0 W/m 12,9 km/h (3 Bft) 97,87 %
07.11.2020 05:32 6,3 C 5,6 C 4,5 C 81 % 1025,5 hPa 0,0 l/m 0 min 0 min 0 W/m 3,2 km/h (1 Bft) 95,74 %
07.11.2020 05:34 6,3 C 5,6 C 4,5 C 81 % 1025,5 hPa 0,0 l/m 0 min 0 min 0 W/m 16,1 km/h (3 Bft) 97,87 %
07.11.2020 05:36 6,3 C 5,6 C 4,5 C 81 % 1025,5 hPa 0,0 l/m 0 min 0 min 0 W/m 12,9 km/h (3 Bft) 97,83 %
07.11.2020 05:38 6,3 C 5,6 C 4,5 C 81 % 1025,5 hPa 0,0 l/m 0 min 0 min 0 W/m 9,7 km/h (2 Bft) 97,87 %
07.11.2020 05:40 6,3 C 5,6 C 4,5 C 81 % 1025,4 hPa 0,0 l/m 0 min 0 min 0 W/m 3,2 km/h (1 Bft) 97,92 %
07.11.2020 05:42 6,3 C 5,6 C 4,5 C 81 % 1025,4 hPa 0,0 l/m 0 min 0 min 0 W/m 3,2 km/h (1 Bft) 97,87 %
07.11.2020 05:44 6,3 C 5,6 C 4,5 C 81 % 1025,4 hPa 0,0 l/m 0 min 0 min 0 W/m 3,2 km/h (1 Bft) 100,00 %
07.11.2020 05:46 6,3 C 5,6 C 4,5 C 82 % 1025,4 hPa 0,0 l/m 0 min 0 min 0 W/m 6,4 km/h (2 Bft) 97,87 %
07.11.2020 05:48 6,3 C 5,6 C 4,5 C 82 % 1025,4 hPa 0,0 l/m 0 min 0 min 0 W/m 16,1 km/h (3 Bft) 93,48 %
07.11.2020 05:50 6,3 C 5,6 C 4,5 C 82 % 1025,4 hPa 0,0 l/m 0 min 0 min 0 W/m 16,1 km/h (3 Bft) 97,87 %
07.11.2020 05:52 6,3 C 5,6 C 4,5 C 82 % 1025,4 hPa 0,0 l/m 0 min 0 min 0 W/m 22,5 km/h (4 Bft) 97,87 %
07.11.2020 05:54 6,3 C 5,6 C 4,5 C 82 % 1025,4 hPa 0,0 l/m 0 min 0 min 0 W/m 6,4 km/h (2 Bft) 97,87 %
07.11.2020 05:56 6,3 C 5,6 C 4,5 C 82 % 1025,4 hPa 0,0 l/m 0 min 0 min 0 W/m 16,1 km/h (3 Bft) 97,87 %
07.11.2020 05:58 6,2 C 5,6 C 4,5 C 82 % 1025,3 hPa 0,0 l/m 0 min 0 min 0 W/m 12,9 km/h (3 Bft) 95,74 %
07.11.2020 06:00 6,3 C 5,6 C 4,5 C 82 % 1025,4 hPa 0,0 l/m 0 min 0 min 0 W/m 16,1 km/h (3 Bft) 97,83 %
07.11.2020 06:02 6,2 C 5,6 C 4,5 C 82 % 1025,4 hPa 0,0 l/m 0 min 0 min 0 W/m 12,9 km/h (3 Bft) 95,74 %
07.11.2020 06:04 6,2 C 5,6 C 4,5 C 82 % 1025,3 hPa 0,0 l/m 0 min 0 min 0 W/m 12,9 km/h (3 Bft) 100,00 %
07.11.2020 06:07 6,2 C 5,6 C 4,5 C 82 % 1025,3 hPa 0,0 l/m 0 min 0 min 0 W/m 6,4 km/h (2 Bft) 98,57 %
07.11.2020 06:08 6,2 C 5,6 C 4,5 C 82 % 1025,3 hPa 0,0 l/m 0 min 0 min 0 W/m 3,2 km/h (1 Bft) 95,83 %
07.11.2020 06:10 6,2 C 5,6 C 4,5 C 82 % 1025,3 hPa 0,0 l/m 0 min 0 min 0 W/m 0,0 km/h (0 Bft) 100,00 %
07.11.2020 06:12 6,2 C 5,6 C 4,5 C 82 % 1025,2 hPa 0,0 l/m 0 min 0 min 0 W/m 12,9 km/h (3 Bft) 100,00 %
07.11.2020 06:14 6,2 C 5,6 C 4,5 C 82 % 1025,3 hPa 0,0 l/m 0 min 0 min 0 W/m 19,3 km/h (3 Bft) 97,87 %
07.11.2020 06:16 6,2 C 5,6 C 4,5 C 82 % 1025,3 hPa 0,0 l/m 0 min 0 min 0 W/m 16,1 km/h (3 Bft) 97,87 %
07.11.2020 06:18 6,2 C 5,6 C 4,5 C 82 % 1025,3 hPa 0,0 l/m 0 min 0 min 0 W/m 12,9 km/h (3 Bft) 97,87 %
07.11.2020 06:20 6,2 C 5,6 C 4,5 C 83 % 1025,3 hPa 0,0 l/m 0 min 0 min 0 W/m 16,1 km/h (3 Bft) 97,87 %
07.11.2020 06:22 6,2 C 5,6 C 4,5 C 83 % 1025,3 hPa 0,0 l/m 0 min 0 min 0 W/m 19,3 km/h (3 Bft) 97,83 %
07.11.2020 06:24 6,2 C 5,6 C 4,5 C 83 % 1025,3 hPa 0,0 l/m 0 min 0 min 0 W/m 12,9 km/h (3 Bft) 93,62 %
07.11.2020 06:26 6,2 C 5,6 C 4,5 C 83 % 1025,3 hPa 0,0 l/m 0 min 0 min 0 W/m 12,9 km/h (3 Bft) 93,62 %
07.11.2020 06:28 6,2 C 5,6 C 4,5 C 83 % 1025,3 hPa 0,0 l/m 0 min 0 min 0 W/m 12,9 km/h (3 Bft) 95,74 %
07.11.2020 06:30 6,2 C 5,6 C 4,5 C 83 % 1025,3 hPa 0,0 l/m 0 min 0 min 0 W/m 12,9 km/h (3 Bft) 95,74 %
07.11.2020 06:32 6,2 C 5,6 C 4,5 C 83 % 1025,3 hPa 0,0 l/m 0 min 0 min 0 W/m 6,4 km/h (2 Bft) 95,74 %
07.11.2020 06:34 6,2 C 5,6 C 4,5 C 83 % 1025,3 hPa 0,0 l/m 0 min 0 min 0 W/m 12,9 km/h (3 Bft) 93,48 %
07.11.2020 06:36 6,2 C 5,6 C 4,5 C 83 % 1025,3 hPa 0,0 l/m 0 min 0 min 0 W/m 6,4 km/h (2 Bft) 95,74 %
07.11.2020 06:38 6,2 C 5,6 C 4,5 C 83 % 1025,3 hPa 0,0 l/m 0 min 0 min 0 W/m 6,4 km/h (2 Bft) 95,74 %
07.11.2020 06:40 6,2 C 5,6 C 4,5 C 83 % 1025,3 hPa 0,0 l/m 0 min 0 min 0 W/m 12,9 km/h (3 Bft) 95,74 %
07.11.2020 06:42 6,2 C 5,6 C 4,5 C 83 % 1025,3 hPa 0,0 l/m 0 min 0 min 0 W/m 0,0 km/h (0 Bft) 93,62 %
07.11.2020 06:44 6,2 C 5,6 C 4,5 C 83 % 1025,3 hPa 0,0 l/m 0 min 0 min 0 W/m 3,2 km/h (1 Bft) 95,74 %
07.11.2020 06:46 6,2 C 5,6 C 4,5 C 83 % 1025,2 hPa 0,0 l/m 0 min 0 min 0 W/m 22,5 km/h (4 Bft) 93,48 %
07.11.2020 06:48 6,2 C 5,6 C 4,5 C 83 % 1025,2 hPa 0,0 l/m 0 min 0 min 0 W/m 12,9 km/h (3 Bft) 95,74 %
07.11.2020 06:50 6,2 C 5,6 C 4,5 C 83 % 1025,2 hPa 0,0 l/m 0 min 0 min 0 W/m 12,9 km/h (3 Bft) 95,74 %
07.11.2020 06:52 6,2 C 5,6 C 4,5 C 83 % 1025,2 hPa 0,0 l/m 0 min 0 min 0 W/m 3,2 km/h (1 Bft) 95,74 %
07.11.2020 06:54 6,3 C 5,6 C 4,5 C 83 % 1025,2 hPa 0,0 l/m 0 min 0 min 0 W/m 12,9 km/h (3 Bft) 95,74 %
07.11.2020 06:56 6,3 C 5,6 C 4,5 C 83 % 1025,2 hPa 0,0 l/m 0 min 0 min 0 W/m 0,0 km/h (0 Bft) 93,62 %
07.11.2020 06:58 6,3 C 5,6 C 4,5 C 83 % 1025,2 hPa 0,0 l/m 0 min 0 min 0 W/m 19,3 km/h (3 Bft) 95,65 %
07.11.2020 07:00 6,3 C 5,6 C 4,5 C 83 % 1025,1 hPa 0,0 l/m 0 min 0 min 0 W/m 16,1 km/h (3 Bft) 100,00 %
07.11.2020 07:02 6,3 C 5,6 C 4,5 C 83 % 1025,1 hPa 0,0 l/m 0 min 0 min 0 W/m 12,9 km/h (3 Bft) 52,27 %
07.11.2020 07:04 6,3 C 5,6 C 4,5 C 83 % 1025,2 hPa 0,0 l/m 0 min 0 min 0 W/m 16,1 km/h (3 Bft) 97,87 %
07.11.2020 07:06 6,3 C 5,6 C 4,5 C 83 % 1025,2 hPa 0,0 l/m 0 min 0 min 0 W/m 19,3 km/h (3 Bft) 94,34 %
07.11.2020 07:08 6,3 C 5,6 C 4,5 C 83 % 1025,2 hPa 0,0 l/m 0 min 0 min 0 W/m 6,4 km/h (2 Bft) 97,87 %
07.11.2020 07:10 6,3 C 5,6 C 4,5 C 83 % 1025,1 hPa 0,0 l/m 0 min 0 min 0 W/m 16,1 km/h (3 Bft) 100,00 %
07.11.2020 07:12 6,3 C 5,6 C 4,5 C 83 % 1025,1 hPa 0,0 l/m 0 min 0 min 0 W/m 19,3 km/h (3 Bft) 97,87 %
07.11.2020 07:14 6,3 C 5,6 C 4,5 C 83 % 1025,1 hPa 0,0 l/m 0 min 0 min 0 W/m 22,5 km/h (4 Bft) 95,74 %
07.11.2020 07:16 6,3 C 5,6 C 4,5 C 83 % 1025,2 hPa 0,0 l/m 0 min 0 min 0 W/m 22,5 km/h (4 Bft) 93,62 %
07.11.2020 07:18 6,3 C 5,6 C 4,5 C 83 % 1025,1 hPa 0,0 l/m 0 min 0 min 0 W/m 12,9 km/h (3 Bft) 97,87 %
07.11.2020 07:20 6,3 C 5,6 C 4,5 C 83 % 1025,2 hPa 0,0 l/m 0 min 0 min 0 W/m 16,1 km/h (3 Bft) 97,87 %
07.11.2020 07:22 6,3 C 5,6 C 4,5 C 83 % 1025,2 hPa 0,0 l/m 0 min 0 min 0 W/m 12,9 km/h (3 Bft) 97,83 %
07.11.2020 07:24 6,3 C 5,6 C 4,5 C 83 % 1025,2 hPa 0,0 l/m 0 min 0 min 0 W/m 3,2 km/h (1 Bft) 97,87 %
07.11.2020 07:26 6,3 C 5,6 C 4,5 C 83 % 1025,2 hPa 0,0 l/m 0 min 0 min 0 W/m 22,5 km/h (4 Bft) 95,74 %
07.11.2020 07:28 6,3 C 5,6 C 4,5 C 83 % 1025,3 hPa 0,0 l/m 0 min 0 min 0 W/m 6,4 km/h (2 Bft) 95,74 %
07.11.2020 07:30 6,3 C 5,6 C 4,5 C 83 % 1025,2 hPa 0,0 l/m 0 min 0 min 0 W/m 6,4 km/h (2 Bft) 97,87 %
07.11.2020 07:32 6,3 C 5,6 C 4,5 C 83 % 1025,3 hPa 0,0 l/m 0 min 0 min 0 W/m 16,1 km/h (3 Bft) 97,83 %
07.11.2020 07:34 6,3 C 5,6 C 4,5 C 83 % 1025,3 hPa 0,0 l/m 0 min 0 min 0 W/m 25,7 km/h (4 Bft) 100,00 %
07.11.2020 07:36 6,3 C 5,6 C 4,5 C 83 % 1025,3 hPa 0,0 l/m 0 min 0 min 0 W/m 9,7 km/h (2 Bft) 100,00 %
07.11.2020 07:38 6,3 C 5,6 C 4,5 C 83 % 1025,2 hPa 0,0 l/m 0 min 0 min 0 W/m 19,3 km/h (3 Bft) 100,00 %
07.11.2020 07:40 6,3 C 5,6 C 4,5 C 83 % 1025,2 hPa 0,0 l/m 0 min 0 min 0 W/m 12,9 km/h (3 Bft) 100,00 %
07.11.2020 07:42 6,3 C 5,6 C 4,5 C 83 % 1025,2 hPa 0,0 l/m 0 min 0 min 0 W/m 16,1 km/h (3 Bft) 100,00 %
07.11.2020 07:44 6,3 C 5,6 C 4,5 C 83 % 1025,2 hPa 0,0 l/m 0 min 0 min 2 W/m 16,1 km/h (3 Bft) 100,00 %
07.11.2020 07:46 6,3 C 5,6 C 4,5 C 83 % 1025,2 hPa 0,0 l/m 0 min 0 min 5 W/m 22,5 km/h (4 Bft) 100,00 %
07.11.2020 07:48 6,3 C 5,6 C 4,5 C 83 % 1025,2 hPa 0,0 l/m 0 min 0 min 5 W/m 6,4 km/h (2 Bft) 100,00 %
07.11.2020 07:50 6,3 C 5,6 C 4,5 C 83 % 1025,2 hPa 0,0 l/m 0 min 0 min 7 W/m 3,2 km/h (1 Bft) 100,00 %
07.11.2020 07:52 6,4 C 5,6 C 4,5 C 83 % 1025,2 hPa 0,0 l/m 0 min 0 min 7 W/m 0,0 km/h (0 Bft) 100,00 %
07.11.2020 07:54 6,4 C 5,6 C 4,5 C 83 % 1025,2 hPa 0,0 l/m 0 min 0 min 9 W/m 19,3 km/h (3 Bft) 100,00 %
07.11.2020 07:56 6,4 C 5,6 C 4,5 C 83 % 1025,2 hPa 0,0 l/m 0 min 0 min 11 W/m 3,2 km/h (1 Bft) 95,65 %
07.11.2020 07:58 6,4 C 5,6 C 4,5 C 83 % 1025,2 hPa 0,0 l/m 0 min 0 min 12 W/m 12,9 km/h (3 Bft) 97,87 %
07.11.2020 08:00 6,4 C 6,1 C 4,5 C 83 % 1025,3 hPa 0,0 l/m 0 min 0 min 13 W/m 3,2 km/h (1 Bft) 97,87 %
07.11.2020 08:02 6,4 C 6,1 C 4,5 C 83 % 1025,2 hPa 0,0 l/m 0 min 0 min 14 W/m 22,5 km/h (4 Bft) 97,87 %
07.11.2020 08:04 6,4 C 6,1 C 5,0 C 83 % 1025,3 hPa 0,0 l/m 0 min 0 min 16 W/m 22,5 km/h (4 Bft) 97,87 %
07.11.2020 08:06 6,4 C 6,1 C 5,0 C 83 % 1025,4 hPa 0,0 l/m 0 min 0 min 18 W/m 32,2 km/h (5 Bft) 97,87 %
07.11.2020 08:08 6,4 C 6,1 C 5,0 C 83 % 1025,3 hPa 0,0 l/m 0 min 0 min 19 W/m 29,0 km/h (5 Bft) 97,83 %
07.11.2020 08:10 6,4 C 6,1 C 5,0 C 83 % 1025,3 hPa 0,0 l/m 0 min 0 min 20 W/m 25,7 km/h (4 Bft) 93,62 %
07.11.2020 08:12 6,4 C 6,1 C 5,0 C 83 % 1025,4 hPa 0,0 l/m 0 min 0 min 23 W/m 16,1 km/h (3 Bft) 97,87 %
07.11.2020 08:14 6,4 C 6,1 C 5,0 C 83 % 1025,4 hPa 0,0 l/m 0 min 0 min 23 W/m 12,9 km/h (3 Bft) 97,87 %
07.11.2020 08:16 6,5 C 6,1 C 5,0 C 83 % 1025,3 hPa 0,0 l/m 0 min 0 min 25 W/m 22,5 km/h (4 Bft) 97,87 %
07.11.2020 08:18 6,5 C 6,1 C 5,0 C 83 % 1025,4 hPa 0,0 l/m 0 min 0 min 27 W/m 25,7 km/h (4 Bft) 95,74 %
07.11.2020 08:20 6,5 C 6,1 C 5,0 C 83 % 1025,4 hPa 0,0 l/m 0 min 0 min 28 W/m 19,3 km/h (3 Bft) 95,65 %
07.11.2020 08:22 6,5 C 6,1 C 5,0 C 83 % 1025,4 hPa 0,0 l/m 0 min 0 min 31 W/m 22,5 km/h (4 Bft) 95,74 %
07.11.2020 08:24 6,5 C 6,1 C 5,0 C 83 % 1025,4 hPa 0,0 l/m 0 min 0 min 32 W/m 16,1 km/h (3 Bft) 97,87 %
07.11.2020 08:26 6,6 C 6,1 C 5,0 C 83 % 1025,4 hPa 0,0 l/m 0 min 0 min 33 W/m 6,4 km/h (2 Bft) 93,62 %
07.11.2020 08:28 6,6 C 6,7 C 5,0 C 83 % 1025,4 hPa 0,0 l/m 0 min 0 min 35 W/m 19,3 km/h (3 Bft) 95,74 %
07.11.2020 08:30 6,6 C 6,7 C 5,0 C 83 % 1025,4 hPa 0,0 l/m 0 min 0 min 37 W/m 25,7 km/h (4 Bft) 97,87 %
07.11.2020 08:32 6,6 C 6,7 C 5,0 C 83 % 1025,4 hPa 0,0 l/m 0 min 0 min 39 W/m 25,7 km/h (4 Bft) 97,83 %
07.11.2020 08:34 6,7 C 6,7 C 5,0 C 83 % 1025,4 hPa 0,0 l/m 0 min 0 min 40 W/m 19,3 km/h (3 Bft) 97,87 %
07.11.2020 08:36 6,7 C 6,7 C 5,0 C 83 % 1025,3 hPa 0,0 l/m 0 min 0 min 42 W/m 22,5 km/h (4 Bft) 95,74 %
07.11.2020 08:38 6,8 C 6,7 C 5,0 C 83 % 1025,4 hPa 0,0 l/m 0 min 0 min 43 W/m 3,2 km/h (1 Bft) 95,74 %
07.11.2020 08:40 6,8 C 6,7 C 5,0 C 83 % 1025,4 hPa 0,0 l/m 0 min 0 min 45 W/m 16,1 km/h (3 Bft) 95,74 %
07.11.2020 08:42 6,8 C 6,7 C 5,0 C 83 % 1025,4 hPa 0,0 l/m 0 min 0 min 46 W/m 12,9 km/h (3 Bft) 97,83 %
07.11.2020 08:44 6,8 C 6,7 C 5,0 C 83 % 1025,4 hPa 0,0 l/m 0 min 0 min 47 W/m 29,0 km/h (5 Bft) 95,74 %
07.11.2020 08:46 6,8 C 6,7 C 5,6 C 83 % 1025,4 hPa 0,0 l/m 0 min 0 min 49 W/m 16,1 km/h (3 Bft) 97,87 %
07.11.2020 08:48 6,9 C 6,7 C 5,6 C 83 % 1025,4 hPa 0,0 l/m 0 min 0 min 51 W/m 16,1 km/h (3 Bft) 93,62 %
07.11.2020 08:50 6,9 C 6,7 C 5,6 C 83 % 1025,4 hPa 0,0 l/m 0 min 0 min 53 W/m 19,3 km/h (3 Bft) 100,00 %
07.11.2020 08:52 6,9 C 6,7 C 5,6 C 83 % 1025,4 hPa 0,0 l/m 0 min 0 min 54 W/m 19,3 km/h (3 Bft) 97,87 %
07.11.2020 08:54 6,9 C 6,7 C 5,6 C 83 % 1025,3 hPa 0,0 l/m 0 min 0 min 56 W/m 16,1 km/h (3 Bft) 95,65 %
07.11.2020 08:56 6,9 C 6,7 C 5,6 C 83 % 1025,4 hPa 0,0 l/m 0 min 0 min 58 W/m 12,9 km/h (3 Bft) 97,87 %
07.11.2020 08:58 6,9 C 7,2 C 5,6 C 83 % 1025,5 hPa 0,0 l/m 0 min 0 min 65 W/m 19,3 km/h (3 Bft) 93,62 %
07.11.2020 09:00 7,0 C 7,2 C 5,6 C 83 % 1025,4 hPa 0,0 l/m 2 min 0 min 87 W/m 19,3 km/h (3 Bft) 97,87 %
07.11.2020 09:02 7,0 C 7,2 C 5,6 C 83 % 1025,4 hPa 0,0 l/m 2 min 0 min 97 W/m 29,0 km/h (5 Bft) 97,87 %
07.11.2020 09:04 7,0 C 7,2 C 5,6 C 83 % 1025,5 hPa 0,0 l/m 2 min 0 min 98 W/m 12,9 km/h (3 Bft) 97,87 %
07.11.2020 09:06 7,0 C 7,8 C 5,6 C 83 % 1025,5 hPa 0,0 l/m 2 min 0 min 99 W/m 35,4 km/h (5 Bft) 93,48 %
07.11.2020 09:08 7,1 C 7,8 C 5,6 C 83 % 1025,5 hPa 0,0 l/m 2 min 0 min 106 W/m 22,5 km/h (4 Bft) 97,87 %
07.11.2020 09:10 7,1 C 7,8 C 5,6 C 83 % 1025,4 hPa 0,0 l/m 2 min 0 min 110 W/m 22,5 km/h (4 Bft) 97,87 %
07.11.2020 09:12 7,1 C 7,8 C 5,6 C 83 % 1025,4 hPa 0,0 l/m 2 min 0 min 115 W/m 12,9 km/h (3 Bft) 97,87 %
07.11.2020 09:14 7,2 C 7,8 C 5,6 C 83 % 1025,4 hPa 0,0 l/m 2 min 0 min 120 W/m 22,5 km/h (4 Bft) 97,87 %
07.11.2020 09:16 7,3 C 7,8 C 5,6 C 83 % 1025,3 hPa 0,0 l/m 2 min 0 min 123 W/m 16,1 km/h (3 Bft) 97,87 %
07.11.2020 09:18 7,3 C 7,8 C 5,6 C 83 % 1025,3 hPa 0,0 l/m 2 min 0 min 126 W/m 19,3 km/h (3 Bft) 97,83 %
07.11.2020 09:20 7,3 C 7,8 C 5,6 C 83 % 1025,3 hPa 0,0 l/m 2 min 0 min 131 W/m 32,2 km/h (5 Bft) 97,87 %
07.11.2020 09:22 7,4 C 7,8 C 6,1 C 83 % 1025,4 hPa 0,0 l/m 2 min 0 min 136 W/m 16,1 km/h (3 Bft) 97,87 %
07.11.2020 09:24 7,4 C 7,8 C 6,1 C 83 % 1025,2 hPa 0,0 l/m 2 min 0 min 140 W/m 22,5 km/h (4 Bft) 95,74 %
07.11.2020 09:26 7,4 C 7,8 C 6,1 C 83 % 1025,3 hPa 0,0 l/m 2 min 0 min 144 W/m 29,0 km/h (5 Bft) 97,87 %
07.11.2020 09:28 7,5 C 7,8 C 6,1 C 83 % 1025,2 hPa 0,0 l/m 2 min 0 min 146 W/m 29,0 km/h (5 Bft) 97,87 %
07.11.2020 09:30 7,5 C 7,8 C 6,1 C 83 % 1025,3 hPa 0,0 l/m 2 min 0 min 149 W/m 22,5 km/h (4 Bft) 95,65 %
07.11.2020 09:32 7,6 C 7,8 C 6,1 C 83 % 1025,2 hPa 0,0 l/m 2 min 0 min 149 W/m 19,3 km/h (3 Bft) 95,74 %
07.11.2020 09:34 7,6 C 7,8 C 6,1 C 83 % 1025,2 hPa 0,0 l/m 2 min 0 min 151 W/m 16,1 km/h (3 Bft) 97,87 %
07.11.2020 09:36 7,6 C 7,8 C 6,1 C 83 % 1025,2 hPa 0,0 l/m 2 min 0 min 158 W/m 19,3 km/h (3 Bft) 97,87 %
07.11.2020 09:38 7,7 C 8,3 C 6,1 C 83 % 1025,2 hPa 0,0 l/m 2 min 0 min 158 W/m 19,3 km/h (3 Bft) 97,87 %
07.11.2020 09:40 7,8 C 8,3 C 6,1 C 83 % 1025,2 hPa 0,0 l/m 2 min 0 min 157 W/m 12,9 km/h (3 Bft) 97,83 %
07.11.2020 09:42 7,8 C 8,3 C 6,1 C 83 % 1025,3 hPa 0,0 l/m 2 min 0 min 161 W/m 12,9 km/h (3 Bft) 97,87 %
07.11.2020 09:44 7,9 C 8,3 C 6,1 C 83 % 1025,2 hPa 0,0 l/m 2 min 0 min 164 W/m 19,3 km/h (3 Bft) 97,87 %
07.11.2020 09:46 7,9 C 8,3 C 6,7 C 83 % 1025,3 hPa 0,0 l/m 2 min 0 min 170 W/m 6,4 km/h (2 Bft) 100,00 %
07.11.2020 09:48 7,9 C 8,3 C 6,7 C 83 % 1025,3 hPa 0,0 l/m 2 min 0 min 165 W/m 25,7 km/h (4 Bft) 100,00 %
07.11.2020 09:50 7,9 C 8,3 C 6,7 C 83 % 1025,3 hPa 0,0 l/m 2 min 0 min 172 W/m 19,3 km/h (3 Bft) 100,00 %
07.11.2020 09:52 8,0 C 8,3 C 6,7 C 83 % 1025,4 hPa 0,0 l/m 2 min 0 min 181 W/m 12,9 km/h (3 Bft) 97,83 %
07.11.2020 09:54 8,0 C 8,9 C 6,7 C 82 % 1025,3 hPa 0,0 l/m 2 min 0 min 190 W/m 19,3 km/h (3 Bft) 97,87 %
07.11.2020 09:56 8,1 C 8,9 C 6,7 C 82 % 1025,4 hPa 0,0 l/m 2 min 0 min 195 W/m 25,7 km/h (4 Bft) 100,00 %
07.11.2020 09:58 8,1 C 8,9 C 6,7 C 83 % 1025,4 hPa 0,0 l/m 2 min 0 min 202 W/m 16,1 km/h (3 Bft) 97,87 %
07.11.2020 10:00 8,1 C 8,9 C 6,7 C 83 % 1025,4 hPa 0,0 l/m 2 min 0 min 209 W/m 19,3 km/h (3 Bft) 97,87 %
07.11.2020 10:02 8,2 C 9,4 C 6,7 C 83 % 1025,4 hPa 0,0 l/m 2 min 0 min 212 W/m 19,3 km/h (3 Bft) 97,83 %
07.11.2020 10:04 8,3 C 10,0 C 6,7 C 82 % 1025,5 hPa 0,0 l/m 2 min 0 min 212 W/m 22,5 km/h (4 Bft) 97,87 %
07.11.2020 10:06 8,3 C 10,0 C 7,2 C 82 % 1025,5 hPa 0,0 l/m 2 min 0 min 216 W/m 16,1 km/h (3 Bft) 97,87 %
07.11.2020 10:08 8,4 C 10,0 C 7,2 C 82 % 1025,5 hPa 0,0 l/m 2 min 0 min 220 W/m 12,9 km/h (3 Bft) 97,96 %
07.11.2020 10:10 8,4 C 10,0 C 7,2 C 82 % 1025,5 hPa 0,0 l/m 2 min 0 min 222 W/m 22,5 km/h (4 Bft) 97,87 %
07.11.2020 10:12 8,5 C 9,4 C 7,2 C 82 % 1025,5 hPa 0,0 l/m 2 min 0 min 224 W/m 29,0 km/h (5 Bft) 97,87 %
07.11.2020 10:14 8,5 C 10,0 C 7,2 C 82 % 1025,5 hPa 0,0 l/m 2 min 0 min 230 W/m 19,3 km/h (3 Bft) 97,83 %
07.11.2020 10:16 8,5 C 10,0 C 7,2 C 82 % 1025,5 hPa 0,0 l/m 2 min 0 min 224 W/m 19,3 km/h (3 Bft) 97,87 %
07.11.2020 10:18 8,6 C 10,6 C 7,2 C 82 % 1025,5 hPa 0,0 l/m 2 min 0 min 211 W/m 22,5 km/h (4 Bft) 95,74 %
07.11.2020 10:20 8,6 C 10,6 C 7,2 C 82 % 1025,5 hPa 0,0 l/m 2 min 0 min 213 W/m 16,1 km/h (3 Bft) 97,87 %
07.11.2020 10:22 8,6 C 10,0 C 7,2 C 82 % 1025,5 hPa 0,0 l/m 2 min 0 min 216 W/m 19,3 km/h (3 Bft) 97,87 %
07.11.2020 10:24 8,7 C 9,4 C 7,2 C 82 % 1025,5 hPa 0,0 l/m 2 min 0 min 236 W/m 25,7 km/h (4 Bft) 95,74 %
07.11.2020 10:26 8,8 C 10,0 C 7,2 C 82 % 1025,4 hPa 0,0 l/m 2 min 0 min 243 W/m 19,3 km/h (3 Bft) 93,48 %
07.11.2020 10:28 8,8 C 10,6 C 7,2 C 82 % 1025,4 hPa 0,0 l/m 2 min 0 min 245 W/m 16,1 km/h (3 Bft) 95,74 %
07.11.2020 10:30 8,9 C 10,6 C 7,2 C 82 % 1025,4 hPa 0,0 l/m 2 min 0 min 218 W/m 25,7 km/h (4 Bft) 95,74 %
07.11.2020 10:32 8,9 C 10,0 C 7,2 C 82 % 1025,4 hPa 0,0 l/m 2 min 0 min 224 W/m 29,0 km/h (5 Bft) 95,74 %
07.11.2020 10:34 8,9 C 10,6 C 7,8 C 81 % 1025,4 hPa 0,0 l/m 2 min 0 min 253 W/m 19,3 km/h (3 Bft) 89,36 %
07.11.2020 10:36 9,0 C 10,6 C 7,8 C 81 % 1025,5 hPa 0,0 l/m 2 min 0 min 220 W/m 16,1 km/h (3 Bft) 97,87 %
07.11.2020 10:38 9,0 C 10,6 C 7,8 C 81 % 1025,5 hPa 0,0 l/m 2 min 0 min 206 W/m 25,7 km/h (4 Bft) 95,65 %
07.11.2020 10:40 9,1 C 10,6 C 7,8 C 81 % 1025,4 hPa 0,0 l/m 2 min 0 min 186 W/m 19,3 km/h (3 Bft) 97,87 %
07.11.2020 10:42 9,1 C 10,6 C 7,8 C 82 % 1025,5 hPa 0,0 l/m 2 min 0 min 183 W/m 19,3 km/h (3 Bft) 93,62 %
07.11.2020 10:44 9,3 C 10,6 C 7,8 C 82 % 1025,5 hPa 0,0 l/m 2 min 0 min 210 W/m 16,1 km/h (3 Bft) 93,62 %
07.11.2020 10:46 9,3 C 10,6 C 7,8 C 81 % 1025,5 hPa 0,0 l/m 2 min 0 min 206 W/m 22,5 km/h (4 Bft) 95,74 %
07.11.2020 10:48 9,3 C 10,6 C 7,8 C 81 % 1025,4 hPa 0,0 l/m 2 min 0 min 239 W/m 22,5 km/h (4 Bft) 95,74 %
07.11.2020 10:50 9,4 C 10,6 C 7,8 C 81 % 1025,5 hPa 0,0 l/m 2 min 0 min 263 W/m 19,3 km/h (3 Bft) 97,83 %
07.11.2020 10:52 9,4 C 10,6 C 7,8 C 81 % 1025,4 hPa 0,0 l/m 2 min 0 min 277 W/m 19,3 km/h (3 Bft) 97,87 %
07.11.2020 10:54 9,5 C 10,6 C 7,8 C 81 % 1025,3 hPa 0,0 l/m 2 min 0 min 283 W/m 12,9 km/h (3 Bft) 97,87 %
07.11.2020 10:56 9,5 C 11,1 C 7,8 C 81 % 1025,4 hPa 0,0 l/m 2 min 0 min 257 W/m 16,1 km/h (3 Bft) 100,00 %
07.11.2020 10:58 9,6 C 11,7 C 8,4 C 81 % 1025,3 hPa 0,0 l/m 2 min 0 min 283 W/m 22,5 km/h (4 Bft) 95,74 %
07.11.2020 11:00 9,7 C 11,7 C 8,4 C 81 % 1025,3 hPa 0,0 l/m 2 min 0 min 284 W/m 12,9 km/h (3 Bft) 100,00 %
07.11.2020 11:02 9,8 C 11,7 C 8,4 C 81 % 1025,3 hPa 0,0 l/m 2 min 0 min 258 W/m 19,3 km/h (3 Bft) 97,83 %
07.11.2020 11:04 9,9 C 12,2 C 8,4 C 81 % 1025,3 hPa 0,0 l/m 2 min 0 min 254 W/m 19,3 km/h (3 Bft) 100,00 %
07.11.2020 11:06 9,9 C 12,8 C 8,4 C 81 % 1025,3 hPa 0,0 l/m 2 min 0 min 238 W/m 16,1 km/h (3 Bft) 100,00 %
07.11.2020 11:08 10,0 C 12,8 C 8,4 C 80 % 1025,2 hPa 0,0 l/m 2 min 0 min 287 W/m 19,3 km/h (3 Bft) 100,00 %
07.11.2020 11:10 10,0 C 13,9 C 8,4 C 80 % 1025,2 hPa 0,0 l/m 2 min 0 min 309 W/m 19,3 km/h (3 Bft) 100,00 %
07.11.2020 11:12 10,1 C 13,9 C 8,4 C 80 % 1025,2 hPa 0,0 l/m 2 min 0 min 314 W/m 12,9 km/h (3 Bft) 100,00 %
07.11.2020 11:14 10,1 C 13,9 C 8,9 C 80 % 1025,2 hPa 0,0 l/m 2 min 0 min 315 W/m 19,3 km/h (3 Bft) 100,00 %
07.11.2020 11:16 10,3 C 14,4 C 8,9 C 80 % 1025,1 hPa 0,0 l/m 2 min 0 min 317 W/m 19,3 km/h (3 Bft) 100,00 %
07.11.2020 11:18 10,3 C 14,4 C 8,9 C 80 % 1025,2 hPa 0,0 l/m 2 min 0 min 321 W/m 19,3 km/h (3 Bft) 100,00 %
07.11.2020 11:20 10,4 C 14,4 C 8,9 C 80 % 1025,2 hPa 0,0 l/m 2 min 0 min 322 W/m 16,1 km/h (3 Bft) 100,00 %
07.11.2020 11:22 10,5 C 15,6 C 8,9 C 80 % 1025,2 hPa 0,0 l/m 2 min 0 min 324 W/m 12,9 km/h (3 Bft) 100,00 %
07.11.2020 11:24 10,6 C 15,6 C 8,9 C 80 % 1025,1 hPa 0,0 l/m 2 min 0 min 327 W/m 16,1 km/h (3 Bft) 100,00 %
07.11.2020 11:26 10,6 C 15,6 C 8,9 C 80 % 1025,0 hPa 0,0 l/m 2 min 0 min 329 W/m 16,1 km/h (3 Bft) 100,00 %
07.11.2020 11:28 10,8 C 15,6 C 9,5 C 79 % 1025,0 hPa 0,0 l/m 2 min 0 min 330 W/m 12,9 km/h (3 Bft) 100,00 %
07.11.2020 11:30 10,8 C 15,6 C 9,5 C 79 % 1025,0 hPa 0,0 l/m 2 min 0 min 328 W/m 19,3 km/h (3 Bft) 97,87 %
07.11.2020 11:32 10,9 C 15,6 C 9,5 C 79 % 1024,9 hPa 0,0 l/m 2 min 0 min 327 W/m 16,1 km/h (3 Bft) 100,00 %
07.11.2020 11:34 11,0 C 15,6 C 9,5 C 79 % 1024,8 hPa 0,0 l/m 2 min 0 min 326 W/m 19,3 km/h (3 Bft) 100,00 %
07.11.2020 11:36 11,1 C 15,6 C 9,5 C 78 % 1024,8 hPa 0,0 l/m 2 min 0 min 327 W/m 16,1 km/h (3 Bft) 100,00 %
07.11.2020 11:38 11,2 C 16,1 C 9,5 C 78 % 1024,8 hPa 0,0 l/m 2 min 0 min 327 W/m 3,2 km/h (1 Bft) 100,00 %
07.11.2020 11:40 11,3 C 15,6 C 9,5 C 78 % 1024,7 hPa 0,0 l/m 2 min 0 min 334 W/m 22,5 km/h (4 Bft) 100,00 %
07.11.2020 11:42 11,4 C 16,1 C 9,5 C 78 % 1024,7 hPa 0,0 l/m 2 min 0 min 337 W/m 16,1 km/h (3 Bft) 100,00 %
07.11.2020 11:44 11,5 C 15,6 C 9,5 C 78 % 1024,7 hPa 0,0 l/m 2 min 0 min 328 W/m 19,3 km/h (3 Bft) 97,87 %
07.11.2020 11:46 11,5 C 16,1 C 10,0 C 78 % 1024,6 hPa 0,0 l/m 2 min 0 min 324 W/m 12,9 km/h (3 Bft) 100,00 %
07.11.2020 11:48 11,6 C 15,6 C 10,0 C 77 % 1024,6 hPa 0,0 l/m 2 min 0 min 320 W/m 22,5 km/h (4 Bft) 100,00 %
07.11.2020 11:50 11,7 C 15,6 C 10,0 C 77 % 1024,6 hPa 0,0 l/m 2 min 0 min 307 W/m 16,1 km/h (3 Bft) 100,00 %
07.11.2020 11:52 11,8 C 15,6 C 10,0 C 77 % 1024,5 hPa 0,0 l/m 2 min 0 min 302 W/m 16,1 km/h (3 Bft) 100,00 %
07.11.2020 11:54 11,9 C 16,1 C 10,0 C 77 % 1024,5 hPa 0,0 l/m 2 min 0 min 303 W/m 12,9 km/h (3 Bft) 100,00 %
07.11.2020 11:56 12,0 C 16,7 C 10,0 C 77 % 1024,5 hPa 0,0 l/m 2 min 0 min 322 W/m 6,4 km/h (2 Bft) 97,87 %
07.11.2020 11:58 12,0 C 16,7 C 10,0 C 77 % 1024,4 hPa 0,0 l/m 2 min 0 min 347 W/m 12,9 km/h (3 Bft) 97,87 %
07.11.2020 12:00 12,1 C 17,2 C 10,0 C 77 % 1024,4 hPa 0,0 l/m 2 min 0 min 357 W/m 6,4 km/h (2 Bft) 98,08 %
07.11.2020 12:02 12,2 C 17,8 C 10,0 C 77 % 1024,3 hPa 0,0 l/m 2 min 0 min 360 W/m 16,1 km/h (3 Bft) 91,67 %
07.11.2020 12:04 12,3 C 17,2 C 10,6 C 76 % 1024,3 hPa 0,0 l/m 2 min 0 min 363 W/m 16,1 km/h (3 Bft) 97,87 %
07.11.2020 12:07 12,5 C 16,7 C 10,6 C 76 % 1024,3 hPa 0,0 l/m 3 min 0 min 353 W/m 19,3 km/h (3 Bft) 93,42 %
07.11.2020 12:10 12,6 C 16,7 C 10,6 C 75 % 1024,3 hPa 0,0 l/m 3 min 0 min 353 W/m 19,3 km/h (3 Bft) 96,72 %
07.11.2020 12:12 12,6 C 16,7 C 10,6 C 75 % 1024,3 hPa 0,0 l/m 2 min 0 min 345 W/m 25,7 km/h (4 Bft) 95,74 %
07.11.2020 12:14 12,7 C 16,7 C 10,6 C 75 % 1024,3 hPa 0,0 l/m 2 min 0 min 328 W/m 19,3 km/h (3 Bft) 93,48 %
07.11.2020 12:16 12,8 C 16,7 C 10,6 C 75 % 1024,2 hPa 0,0 l/m 2 min 0 min 360 W/m 16,1 km/h (3 Bft) 95,74 %
07.11.2020 12:18 12,9 C 16,7 C 10,6 C 75 % 1024,3 hPa 0,0 l/m 2 min 0 min 369 W/m 16,1 km/h (3 Bft) 95,74 %
07.11.2020 12:20 12,9 C 16,7 C 10,6 C 74 % 1024,2 hPa 0,0 l/m 2 min 0 min 340 W/m 12,9 km/h (3 Bft) 95,74 %
07.11.2020 12:22 13,0 C 17,2 C 11,1 C 74 % 1024,2 hPa 0,0 l/m 2 min 0 min 348 W/m 16,1 km/h (3 Bft) 95,74 %
07.11.2020 12:24 13,0 C 17,2 C 11,1 C 75 % 1024,2 hPa 0,0 l/m 2 min 0 min 316 W/m 6,4 km/h (2 Bft) 97,87 %
07.11.2020 12:26 13,1 C 16,7 C 11,1 C 75 % 1024,3 hPa 0,0 l/m 2 min 0 min 259 W/m 12,9 km/h (3 Bft) 95,65 %
07.11.2020 12:28 13,1 C 16,1 C 11,1 C 74 % 1024,2 hPa 0,0 l/m 2 min 0 min 269 W/m 12,9 km/h (3 Bft) 95,74 %
07.11.2020 12:30 13,2 C 16,7 C 11,1 C 74 % 1024,2 hPa 0,0 l/m 2 min 0 min 324 W/m 16,1 km/h (3 Bft) 95,74 %
07.11.2020 12:32 13,3 C 17,8 C 11,1 C 74 % 1024,1 hPa 0,0 l/m 2 min 0 min 364 W/m 12,9 km/h (3 Bft) 98,15 %
07.11.2020 12:34 13,3 C 18,3 C 11,1 C 74 % 1024,1 hPa 0,0 l/m 2 min 0 min 372 W/m 16,1 km/h (3 Bft) 97,87 %
07.11.2020 12:36 13,4 C 18,3 C 11,1 C 74 % 1024,1 hPa 0,0 l/m 2 min 0 min 367 W/m 16,1 km/h (3 Bft) 97,83 %
07.11.2020 12:38 13,5 C 18,3 C 11,1 C 74 % 1024,0 hPa 0,0 l/m 2 min 0 min 370 W/m 12,9 km/h (3 Bft) 97,87 %
07.11.2020 12:40 13,5 C 18,3 C 11,7 C 73 % 1024,0 hPa 0,0 l/m 2 min 0 min 377 W/m 12,9 km/h (3 Bft) 100,00 %
07.11.2020 12:42 13,6 C 18,9 C 11,7 C 74 % 1024,0 hPa 0,0 l/m 2 min 0 min 374 W/m 16,1 km/h (3 Bft) 95,74 %
07.11.2020 12:44 13,6 C 18,3 C 11,7 C 74 % 1023,9 hPa 0,0 l/m 2 min 0 min 373 W/m 16,1 km/h (3 Bft) 100,00 %
07.11.2020 12:46 13,8 C 18,9 C 11,7 C 73 % 1023,9 hPa 0,0 l/m 2 min 0 min 363 W/m 6,4 km/h (2 Bft) 100,00 %
07.11.2020 12:48 13,8 C 18,9 C 11,7 C 73 % 1023,9 hPa 0,0 l/m 2 min 0 min 365 W/m 16,1 km/h (3 Bft) 97,87 %
07.11.2020 12:50 13,9 C 18,9 C 11,7 C 73 % 1023,9 hPa 0,0 l/m 2 min 0 min 368 W/m 16,1 km/h (3 Bft) 100,00 %
07.11.2020 12:52 14,0 C 18,9 C 11,7 C 73 % 1024,0 hPa 0,0 l/m 2 min 0 min 362 W/m 16,1 km/h (3 Bft) 100,00 %
07.11.2020 12:54 14,1 C 19,4 C 11,7 C 73 % 1024,0 hPa 0,0 l/m 2 min 0 min 364 W/m 6,4 km/h (2 Bft) 100,00 %
07.11.2020 12:56 14,2 C 18,9 C 11,7 C 73 % 1024,0 hPa 0,0 l/m 2 min 0 min 354 W/m 16,1 km/h (3 Bft) 100,00 %
07.11.2020 12:58 14,2 C 19,4 C 11,7 C 73 % 1024,0 hPa 0,0 l/m 2 min 0 min 341 W/m 12,9 km/h (3 Bft) 100,00 %
07.11.2020 13:00 14,2 C 18,9 C 11,7 C 72 % 1023,9 hPa 0,0 l/m 2 min 0 min 351 W/m 16,1 km/h (3 Bft) 100,00 %
07.11.2020 13:02 14,3 C 18,9 C 11,7 C 72 % 1024,0 hPa 0,0 l/m 2 min 0 min 357 W/m 12,9 km/h (3 Bft) 100,00 %
07.11.2020 13:04 14,4 C 18,9 C 11,7 C 72 % 1024,0 hPa 0,0 l/m 2 min 0 min 360 W/m 9,7 km/h (2 Bft) 100,00 %
07.11.2020 13:06 14,5 C 18,9 C 11,7 C 72 % 1024,0 hPa 0,0 l/m 2 min 0 min 340 W/m 12,9 km/h (3 Bft) 100,00 %
07.11.2020 13:08 14,5 C 18,9 C 12,2 C 71 % 1024,0 hPa 0,0 l/m 2 min 0 min 341 W/m 16,1 km/h (3 Bft) 100,00 %
07.11.2020 13:10 14,6 C 18,9 C 11,7 C 71 % 1024,0 hPa 0,0 l/m 2 min 0 min 354 W/m 16,1 km/h (3 Bft) 100,00 %
07.11.2020 13:12 14,6 C 18,9 C 12,2 C 71 % 1023,9 hPa 0,0 l/m 2 min 0 min 346 W/m 6,4 km/h (2 Bft) 100,00 %
07.11.2020 13:14 14,7 C 18,9 C 12,2 C 71 % 1023,9 hPa 0,0 l/m 2 min 0 min 344 W/m 6,4 km/h (2 Bft) 97,87 %
07.11.2020 13:16 14,8 C 19,4 C 12,2 C 71 % 1023,9 hPa 0,0 l/m 2 min 0 min 348 W/m 12,9 km/h (3 Bft) 95,74 %
07.11.2020 13:18 14,8 C 19,4 C 12,2 C 71 % 1023,9 hPa 0,0 l/m 2 min 0 min 346 W/m 12,9 km/h (3 Bft) 97,87 %
07.11.2020 13:20 14,9 C 19,4 C 12,2 C 71 % 1023,9 hPa 0,0 l/m 2 min 0 min 331 W/m 12,9 km/h (3 Bft) 100,00 %
07.11.2020 13:22 14,9 C 18,3 C 12,2 C 71 % 1023,8 hPa 0,0 l/m 2 min 0 min 279 W/m 19,3 km/h (3 Bft) 95,74 %
07.11.2020 13:24 14,9 C 17,8 C 12,2 C 70 % 1023,9 hPa 0,0 l/m 2 min 0 min 308 W/m 16,1 km/h (3 Bft) 97,87 %
07.11.2020 13:26 15,0 C 18,3 C 12,2 C 70 % 1023,9 hPa 0,0 l/m 2 min 0 min 319 W/m 12,9 km/h (3 Bft) 100,00 %
07.11.2020 13:28 15,0 C 18,3 C 12,2 C 70 % 1023,9 hPa 0,0 l/m 2 min 0 min 314 W/m 12,9 km/h (3 Bft) 100,00 %
07.11.2020 13:30 15,0 C 18,3 C 12,2 C 70 % 1023,8 hPa 0,0 l/m 2 min 0 min 314 W/m 19,3 km/h (3 Bft) 97,83 %
07.11.2020 13:32 15,0 C 18,3 C 12,2 C 70 % 1023,8 hPa 0,0 l/m 2 min 0 min 319 W/m 16,1 km/h (3 Bft) 100,00 %
07.11.2020 13:34 15,0 C 18,3 C 12,2 C 70 % 1023,8 hPa 0,0 l/m 2 min 0 min 320 W/m 16,1 km/h (3 Bft) 97,87 %
07.11.2020 13:36 15,0 C 17,8 C 12,2 C 70 % 1023,8 hPa 0,0 l/m 2 min 0 min 313 W/m 19,3 km/h (3 Bft) 97,87 %
07.11.2020 13:38 15,0 C 18,3 C 12,2 C 70 % 1023,7 hPa 0,0 l/m 2 min 0 min 318 W/m 12,9 km/h (3 Bft) 95,74 %
07.11.2020 13:40 15,0 C 18,3 C 12,2 C 69 % 1023,7 hPa 0,0 l/m 2 min 0 min 306 W/m 25,7 km/h (4 Bft) 97,87 %
07.11.2020 13:42 15,0 C 17,8 C 12,2 C 70 % 1023,7 hPa 0,0 l/m 2 min 0 min 275 W/m 12,9 km/h (3 Bft) 97,83 %
07.11.2020 13:44 15,0 C 17,8 C 12,2 C 70 % 1023,7 hPa 0,0 l/m 2 min 0 min 261 W/m 16,1 km/h (3 Bft) 95,74 %
07.11.2020 13:46 15,1 C 17,8 C 12,2 C 70 % 1023,7 hPa 0,0 l/m 2 min 0 min 296 W/m 16,1 km/h (3 Bft) 95,74 %
07.11.2020 13:48 15,1 C 18,9 C 12,2 C 70 % 1023,6 hPa 0,0 l/m 2 min 0 min 310 W/m 12,9 km/h (3 Bft) 95,74 %
07.11.2020 13:50 15,1 C 18,9 C 12,2 C 70 % 1023,6 hPa 0,0 l/m 2 min 0 min 307 W/m 16,1 km/h (3 Bft) 95,74 %
07.11.2020 13:52 15,1 C 18,9 C 12,2 C 70 % 1023,6 hPa 0,0 l/m 2 min 0 min 312 W/m 12,9 km/h (3 Bft) 95,74 %
07.11.2020 13:54 15,1 C 18,9 C 12,2 C 70 % 1023,5 hPa 0,0 l/m 2 min 0 min 310 W/m 12,9 km/h (3 Bft) 95,65 %
07.11.2020 13:56 15,1 C 18,3 C 12,2 C 70 % 1023,5 hPa 0,0 l/m 2 min 0 min 264 W/m 6,4 km/h (2 Bft) 95,74 %
07.11.2020 13:58 15,2 C 18,9 C 12,2 C 70 % 1023,5 hPa 0,0 l/m 2 min 0 min 306 W/m 6,4 km/h (2 Bft) 97,87 %
07.11.2020 14:00 15,3 C 18,9 C 12,2 C 70 % 1023,4 hPa 0,0 l/m 2 min 0 min 303 W/m 6,4 km/h (2 Bft) 95,74 %
07.11.2020 14:02 15,3 C 18,9 C 12,2 C 70 % 1023,4 hPa 0,0 l/m 2 min 0 min 311 W/m 6,4 km/h (2 Bft) 93,62 %
07.11.2020 14:04 15,3 C 18,9 C 12,2 C 70 % 1023,4 hPa 0,0 l/m 2 min 0 min 315 W/m 12,9 km/h (3 Bft) 95,74 %
07.11.2020 14:06 15,3 C 18,9 C 12,2 C 71 % 1023,4 hPa 0,0 l/m 2 min 0 min 309 W/m 12,9 km/h (3 Bft) 93,48 %
07.11.2020 14:08 15,4 C 18,9 C 12,2 C 70 % 1023,4 hPa 0,0 l/m 2 min 0 min 288 W/m 12,9 km/h (3 Bft) 93,62 %
07.11.2020 14:10 15,4 C 18,9 C 12,2 C 70 % 1023,4 hPa 0,0 l/m 2 min 0 min 299 W/m 12,9 km/h (3 Bft) 95,74 %
07.11.2020 14:12 15,4 C 18,9 C 12,2 C 70 % 1023,4 hPa 0,0 l/m 2 min 0 min 279 W/m 6,4 km/h (2 Bft) 93,62 %
07.11.2020 14:14 15,4 C 18,9 C 12,8 C 70 % 1023,4 hPa 0,0 l/m 2 min 0 min 311 W/m 12,9 km/h (3 Bft) 91,49 %
07.11.2020 14:16 15,4 C 18,9 C 12,2 C 70 % 1023,3 hPa 0,0 l/m 2 min 0 min 307 W/m 12,9 km/h (3 Bft) 93,62 %
07.11.2020 14:18 15,5 C 18,9 C 12,2 C 70 % 1023,3 hPa 0,0 l/m 2 min 0 min 302 W/m 12,9 km/h (3 Bft) 93,48 %
07.11.2020 14:20 15,5 C 18,9 C 12,2 C 70 % 1023,2 hPa 0,0 l/m 2 min 0 min 291 W/m 12,9 km/h (3 Bft) 95,74 %
07.11.2020 14:22 15,5 C 18,9 C 12,2 C 69 % 1023,3 hPa 0,0 l/m 2 min 0 min 291 W/m 6,4 km/h (2 Bft) 93,62 %
07.11.2020 14:24 15,5 C 18,9 C 12,2 C 69 % 1023,3 hPa 0,0 l/m 2 min 0 min 299 W/m 12,9 km/h (3 Bft) 95,74 %
07.11.2020 14:26 15,5 C 18,9 C 12,2 C 69 % 1023,3 hPa 0,0 l/m 2 min 0 min 307 W/m 12,9 km/h (3 Bft) 93,62 %
07.11.2020 14:28 15,5 C 18,9 C 12,8 C 69 % 1023,2 hPa 0,0 l/m 2 min 0 min 305 W/m 12,9 km/h (3 Bft) 93,62 %
07.11.2020 14:30 15,5 C 18,9 C 12,8 C 69 % 1023,3 hPa 0,0 l/m 2 min 0 min 304 W/m 12,9 km/h (3 Bft) 95,65 %
07.11.2020 14:32 15,6 C 19,4 C 12,8 C 69 % 1023,3 hPa 0,0 l/m 2 min 0 min 302 W/m 6,4 km/h (2 Bft) 93,75 %
07.11.2020 14:34 15,6 C 19,4 C 12,8 C 69 % 1023,3 hPa 0,0 l/m 2 min 0 min 300 W/m 12,9 km/h (3 Bft) 95,74 %
07.11.2020 14:36 15,6 C 19,4 C 12,8 C 69 % 1023,2 hPa 0,0 l/m 2 min 0 min 295 W/m 9,7 km/h (2 Bft) 95,74 %
07.11.2020 14:38 15,7 C 19,4 C 12,8 C 69 % 1023,2 hPa 0,0 l/m 2 min 0 min 290 W/m 12,9 km/h (3 Bft) 95,74 %
07.11.2020 14:40 15,8 C 19,4 C 12,8 C 69 % 1023,2 hPa 0,0 l/m 2 min 0 min 286 W/m 12,9 km/h (3 Bft) 97,83 %
07.11.2020 14:42 15,8 C 19,4 C 12,8 C 68 % 1023,2 hPa 0,0 l/m 2 min 0 min 274 W/m 16,1 km/h (3 Bft) 97,30 %
07.11.2020 14:44 15,8 C 19,4 C 12,8 C 68 % 1023,1 hPa 0,0 l/m 2 min 0 min 267 W/m 6,4 km/h (2 Bft) 97,83 %
07.11.2020 14:46 15,8 C 19,4 C 12,8 C 68 % 1023,1 hPa 0,0 l/m 2 min 0 min 265 W/m 12,9 km/h (3 Bft) 97,87 %
07.11.2020 14:48 15,9 C 18,9 C 12,8 C 68 % 1023,2 hPa 0,0 l/m 2 min 0 min 259 W/m 16,1 km/h (3 Bft) 95,74 %
07.11.2020 14:50 15,9 C 18,9 C 12,8 C 68 % 1023,2 hPa 0,0 l/m 2 min 0 min 250 W/m 12,9 km/h (3 Bft) 97,87 %
07.11.2020 14:52 15,9 C 18,3 C 12,8 C 68 % 1023,2 hPa 0,0 l/m 2 min 0 min 243 W/m 12,9 km/h (3 Bft) 97,87 %
07.11.2020 14:54 15,9 C 18,3 C 12,8 C 68 % 1023,2 hPa 0,0 l/m 2 min 0 min 237 W/m 9,7 km/h (2 Bft) 97,87 %
07.11.2020 14:56 15,9 C 17,8 C 12,8 C 67 % 1023,2 hPa 0,0 l/m 2 min 0 min 234 W/m 12,9 km/h (3 Bft) 95,65 %
07.11.2020 14:58 15,8 C 16,7 C 12,8 C 67 % 1023,2 hPa 0,0 l/m 2 min 0 min 228 W/m 12,9 km/h (3 Bft) 100,00 %
07.11.2020 15:00 15,8 C 16,7 C 12,8 C 67 % 1023,1 hPa 0,0 l/m 2 min 0 min 222 W/m 12,9 km/h (3 Bft) 97,87 %
07.11.2020 15:02 15,8 C 16,1 C 12,8 C 68 % 1023,1 hPa 0,0 l/m 2 min 0 min 218 W/m 12,9 km/h (3 Bft) 97,87 %
07.11.2020 15:04 15,8 C 15,6 C 12,8 C 68 % 1023,0 hPa 0,0 l/m 2 min 0 min 205 W/m 16,1 km/h (3 Bft) 100,00 %
07.11.2020 15:06 15,8 C 15,6 C 12,8 C 68 % 1023,0 hPa 0,0 l/m 2 min 0 min 183 W/m 12,9 km/h (3 Bft) 97,87 %
07.11.2020 15:08 15,7 C 15,0 C 12,8 C 68 % 1023,0 hPa 0,0 l/m 2 min 0 min 153 W/m 12,9 km/h (3 Bft) 100,00 %
07.11.2020 15:10 15,7 C 15,0 C 12,8 C 68 % 1023,0 hPa 0,0 l/m 2 min 0 min 119 W/m 16,1 km/h (3 Bft) 100,00 %
07.11.2020 15:12 15,6 C 15,0 C 12,8 C 68 % 1023,0 hPa 0,0 l/m 0 min 0 min 92 W/m 3,2 km/h (1 Bft) 100,00 %
07.11.2020 15:14 15,6 C 15,0 C 12,2 C 69 % 1023,0 hPa 0,0 l/m 0 min 0 min 75 W/m 12,9 km/h (3 Bft) 100,00 %
07.11.2020 15:16 15,6 C 15,0 C 12,2 C 69 % 1023,0 hPa 0,0 l/m 0 min 0 min 69 W/m 12,9 km/h (3 Bft) 100,00 %
07.11.2020 15:18 15,5 C 14,4 C 12,2 C 69 % 1022,9 hPa 0,0 l/m 0 min 0 min 68 W/m 6,4 km/h (2 Bft) 100,00 %
07.11.2020 15:20 15,5 C 14,4 C 12,2 C 69 % 1022,9 hPa 0,0 l/m 0 min 0 min 67 W/m 12,9 km/h (3 Bft) 100,00 %
07.11.2020 15:22 15,5 C 14,4 C 12,2 C 69 % 1022,8 hPa 0,0 l/m 0 min 0 min 65 W/m 12,9 km/h (3 Bft) 100,00 %
07.11.2020 15:24 15,4 C 14,4 C 12,2 C 69 % 1022,8 hPa 0,0 l/m 0 min 0 min 65 W/m 12,9 km/h (3 Bft) 100,00 %
07.11.2020 15:26 15,4 C 14,4 C 12,2 C 69 % 1022,8 hPa 0,0 l/m 0 min 0 min 65 W/m 12,9 km/h (3 Bft) 100,00 %
07.11.2020 15:28 15,4 C 14,4 C 12,2 C 70 % 1022,8 hPa 0,0 l/m 0 min 0 min 63 W/m 3,2 km/h (1 Bft) 100,00 %
07.11.2020 15:30 15,4 C 14,4 C 12,2 C 70 % 1022,8 hPa 0,0 l/m 0 min 0 min 63 W/m 12,9 km/h (3 Bft) 100,00 %
07.11.2020 15:32 15,3 C 14,4 C 12,2 C 70 % 1022,8 hPa 0,0 l/m 0 min 0 min 62 W/m 6,4 km/h (2 Bft) 100,00 %
07.11.2020 15:34 15,3 C 14,4 C 12,2 C 70 % 1022,8 hPa 0,0 l/m 0 min 0 min 62 W/m 6,4 km/h (2 Bft) 100,00 %
07.11.2020 15:36 15,3 C 14,4 C 12,2 C 70 % 1022,7 hPa 0,0 l/m 0 min 0 min 60 W/m 3,2 km/h (1 Bft) 97,87 %
07.11.2020 15:38 15,2 C 14,4 C 12,2 C 70 % 1022,7 hPa 0,0 l/m 0 min 0 min 58 W/m 6,4 km/h (2 Bft) 100,00 %
07.11.2020 15:40 15,2 C 14,4 C 12,2 C 70 % 1022,8 hPa 0,0 l/m 0 min 0 min 56 W/m 12,9 km/h (3 Bft) 100,00 %
07.11.2020 15:42 15,1 C 14,4 C 12,2 C 70 % 1022,7 hPa 0,0 l/m 0 min 0 min 53 W/m 6,4 km/h (2 Bft) 97,87 %
07.11.2020 15:44 15,1 C 14,4 C 12,2 C 70 % 1022,7 hPa 0,0 l/m 0 min 0 min 50 W/m 16,1 km/h (3 Bft) 100,00 %
07.11.2020 15:46 15,1 C 14,4 C 12,2 C 70 % 1022,7 hPa 0,0 l/m 0 min 0 min 46 W/m 12,9 km/h (3 Bft) 100,00 %
07.11.2020 15:48 15,1 C 14,4 C 12,2 C 70 % 1022,7 hPa 0,0 l/m 0 min 0 min 44 W/m 6,4 km/h (2 Bft) 100,00 %
07.11.2020 15:50 15,0 C 14,4 C 11,7 C 70 % 1022,7 hPa 0,0 l/m 0 min 0 min 42 W/m 6,4 km/h (2 Bft) 100,00 %
07.11.2020 15:52 15,0 C 14,4 C 11,7 C 71 % 1022,7 hPa 0,0 l/m 0 min 0 min 42 W/m 6,4 km/h (2 Bft) 100,00 %
07.11.2020 15:54 15,0 C 13,9 C 11,7 C 71 % 1022,6 hPa 0,0 l/m 0 min 0 min 40 W/m 0,0 km/h (0 Bft) 100,00 %
07.11.2020 15:56 15,0 C 13,9 C 11,7 C 71 % 1022,6 hPa 0,0 l/m 0 min 0 min 40 W/m 3,2 km/h (1 Bft) 100,00 %
07.11.2020 15:58 15,0 C 13,9 C 11,7 C 71 % 1022,6 hPa 0,0 l/m 0 min 0 min 39 W/m 12,9 km/h (3 Bft) 100,00 %
07.11.2020 16:00 14,9 C 13,9 C 11,7 C 71 % 1022,6 hPa 0,0 l/m 0 min 0 min 37 W/m 3,2 km/h (1 Bft) 100,00 %
07.11.2020 16:02 14,9 C 13,9 C 11,7 C 71 % 1022,7 hPa 0,0 l/m 0 min 0 min 36 W/m 6,4 km/h (2 Bft) 100,00 %
07.11.2020 16:04 14,9 C 13,9 C 11,7 C 71 % 1022,7 hPa 0,0 l/m 0 min 0 min 35 W/m 12,9 km/h (3 Bft) 100,00 %
07.11.2020 16:06 14,9 C 13,9 C 11,7 C 71 % 1022,6 hPa 0,0 l/m 0 min 0 min 33 W/m 0,0 km/h (0 Bft) 100,00 %
07.11.2020 16:08 14,9 C 13,9 C 11,1 C 71 % 1022,6 hPa 0,0 l/m 0 min 0 min 32 W/m 6,4 km/h (2 Bft) 97,87 %
07.11.2020 16:10 14,8 C 13,9 C 11,1 C 72 % 1022,6 hPa 0,0 l/m 0 min 0 min 32 W/m 0,0 km/h (0 Bft) 97,87 %
07.11.2020 16:12 14,8 C 13,9 C 10,6 C 72 % 1022,6 hPa 0,0 l/m 0 min 0 min 30 W/m 0,0 km/h (0 Bft) 97,87 %
07.11.2020 16:14 14,8 C 13,3 C 10,6 C 72 % 1022,6 hPa 0,0 l/m 0 min 0 min 28 W/m 3,2 km/h (1 Bft) 97,87 %
07.11.2020 16:16 14,8 C 13,3 C 10,6 C 72 % 1022,6 hPa 0,0 l/m 0 min 0 min 27 W/m 0,0 km/h (0 Bft) 95,74 %
07.11.2020 16:18 14,7 C 13,3 C 10,0 C 72 % 1022,6 hPa 0,0 l/m 0 min 0 min 25 W/m 0,0 km/h (0 Bft) 97,83 %
07.11.2020 16:20 14,7 C 12,8 C 10,0 C 72 % 1022,5 hPa 0,0 l/m 0 min 0 min 25 W/m 0,0 km/h (0 Bft) 95,74 %
07.11.2020 16:22 14,6 C 12,8 C 10,0 C 72 % 1022,6 hPa 0,0 l/m 0 min 0 min 23 W/m 0,0 km/h (0 Bft) 97,87 %
07.11.2020 16:24 14,6 C 12,2 C 9,5 C 73 % 1022,6 hPa 0,0 l/m 0 min 0 min 21 W/m 0,0 km/h (0 Bft) 97,87 %
07.11.2020 16:26 14,5 C 12,2 C 9,5 C 74 % 1022,5 hPa 0,0 l/m 0 min 0 min 18 W/m 0,0 km/h (0 Bft) 95,74 %
07.11.2020 16:28 14,5 C 11,7 C 9,5 C 74 % 1022,5 hPa 0,0 l/m 0 min 0 min 18 W/m 0,0 km/h (0 Bft) 97,87 %
07.11.2020 16:30 14,4 C 11,7 C 9,5 C 75 % 1022,5 hPa 0,0 l/m 0 min 0 min 15 W/m 0,0 km/h (0 Bft) 93,48 %
07.11.2020 16:32 14,3 C 11,7 C 8,9 C 75 % 1022,6 hPa 0,0 l/m 0 min 0 min 14 W/m 0,0 km/h (0 Bft) 95,74 %
07.11.2020 16:34 14,2 C 12,2 C 8,9 C 75 % 1022,6 hPa 0,0 l/m 0 min 0 min 12 W/m 0,0 km/h (0 Bft) 95,74 %
07.11.2020 16:36 14,2 C 12,2 C 8,9 C 75 % 1022,5 hPa 0,0 l/m 0 min 0 min 12 W/m 0,0 km/h (0 Bft) 95,74 %
07.11.2020 16:38 14,2 C 11,7 C 8,9 C 75 % 1022,5 hPa 0,0 l/m 0 min 0 min 12 W/m 0,0 km/h (0 Bft) 95,74 %
07.11.2020 16:40 14,1 C 12,2 C 8,9 C 75 % 1022,5 hPa 0,0 l/m 0 min 0 min 11 W/m 3,2 km/h (1 Bft) 95,74 %
07.11.2020 16:42 14,0 C 12,2 C 8,9 C 75 % 1022,6 hPa 0,0 l/m 0 min 0 min 9 W/m 3,2 km/h (1 Bft) 95,65 %
07.11.2020 16:44 13,9 C 12,2 C 8,9 C 75 % 1022,6 hPa 0,0 l/m 0 min 0 min 8 W/m 0,0 km/h (0 Bft) 95,74 %
07.11.2020 16:46 13,9 C 12,2 C 8,4 C 75 % 1022,6 hPa 0,0 l/m 0 min 0 min 7 W/m 3,2 km/h (1 Bft) 93,62 %
07.11.2020 16:48 13,8 C 12,2 C 8,4 C 75 % 1022,6 hPa 0,0 l/m 0 min 0 min 6 W/m 3,2 km/h (1 Bft) 95,74 %
07.11.2020 16:50 13,8 C 11,7 C 8,4 C 75 % 1022,6 hPa 0,0 l/m 0 min 0 min 5 W/m 0,0 km/h (0 Bft) 93,62 %
07.11.2020 16:52 13,6 C 11,7 C 8,4 C 75 % 1022,6 hPa 0,0 l/m 0 min 0 min 5 W/m 0,0 km/h (0 Bft) 95,65 %
07.11.2020 16:54 13,5 C 11,1 C 7,8 C 76 % 1022,6 hPa 0,0 l/m 0 min 0 min 1 W/m 0,0 km/h (0 Bft) 95,74 %
07.11.2020 16:56 13,5 C 11,1 C 7,8 C 76 % 1022,6 hPa 0,0 l/m 0 min 0 min 0 W/m 0,0 km/h (0 Bft) 97,87 %
07.11.2020 16:58 13,4 C 10,6 C 7,8 C 76 % 1022,6 hPa 0,0 l/m 0 min 0 min 0 W/m 0,0 km/h (0 Bft) 93,62 %
07.11.2020 17:00 13,3 C 10,6 C 7,8 C 76 % 1022,6 hPa 0,0 l/m 0 min 0 min 0 W/m 0,0 km/h (0 Bft) 93,62 %
07.11.2020 17:02 13,2 C 10,0 C 7,8 C 77 % 1022,6 hPa 0,0 l/m 0 min 0 min 0 W/m 0,0 km/h (0 Bft) 95,74 %
07.11.2020 17:04 13,0 C 10,0 C 7,8 C 77 % 1022,6 hPa 0,0 l/m 0 min 0 min 0 W/m 0,0 km/h (0 Bft) 95,65 %
07.11.2020 17:06 12,9 C 10,0 C 7,8 C 77 % 1022,5 hPa 0,0 l/m 0 min 0 min 0 W/m 0,0 km/h (0 Bft) 91,49 %
07.11.2020 17:08 12,8 C 9,4 C 7,2 C 78 % 1022,5 hPa 0,0 l/m 0 min 0 min 0 W/m 0,0 km/h (0 Bft) 93,62 %
07.11.2020 17:10 12,7 C 9,4 C 7,2 C 78 % 1022,5 hPa 0,0 l/m 0 min 0 min 0 W/m 0,0 km/h (0 Bft) 97,87 %
07.11.2020 17:12 12,6 C 9,4 C 7,2 C 78 % 1022,5 hPa 0,0 l/m 0 min 0 min 0 W/m 0,0 km/h (0 Bft) 97,87 %
07.11.2020 17:14 12,5 C 9,4 C 7,2 C 78 % 1022,5 hPa 0,0 l/m 0 min 0 min 0 W/m 0,0 km/h (0 Bft) 100,00 %
07.11.2020 17:16 12,4 C 9,4 C 7,2 C 79 % 1022,5 hPa 0,0 l/m 0 min 0 min 0 W/m 0,0 km/h (0 Bft) 97,83 %
07.11.2020 17:18 12,3 C 9,4 C 7,2 C 79 % 1022,5 hPa 0,0 l/m 0 min 0 min 0 W/m 0,0 km/h (0 Bft) 95,74 %
07.11.2020 17:20 12,1 C 9,4 C 7,2 C 79 % 1022,5 hPa 0,0 l/m 0 min 0 min 0 W/m 0,0 km/h (0 Bft) 97,87 %
07.11.2020 17:22 12,0 C 8,9 C 7,2 C 80 % 1022,4 hPa 0,0 l/m 0 min 0 min 0 W/m 0,0 km/h (0 Bft) 97,87 %
07.11.2020 17:24 12,0 C 8,9 C 6,7 C 80 % 1022,4 hPa 0,0 l/m 0 min 0 min 0 W/m 0,0 km/h (0 Bft) 95,74 %
07.11.2020 17:26 11,9 C 8,9 C 6,7 C 80 % 1022,4 hPa 0,0 l/m 0 min 0 min 0 W/m 0,0 km/h (0 Bft) 97,87 %
07.11.2020 17:28 11,8 C 8,9 C 6,7 C 81 % 1022,4 hPa 0,0 l/m 0 min 0 min 0 W/m 0,0 km/h (0 Bft) 97,83 %
07.11.2020 17:30 11,7 C 8,9 C 6,7 C 80 % 1022,4 hPa 0,0 l/m 0 min 0 min 0 W/m 0,0 km/h (0 Bft) 97,87 %
07.11.2020 17:32 11,6 C 8,9 C 6,7 C 81 % 1022,4 hPa 0,0 l/m 0 min 0 min 0 W/m 0,0 km/h (0 Bft) 97,87 %
07.11.2020 17:34 11,6 C 9,4 C 6,7 C 81 % 1022,4 hPa 0,0 l/m 0 min 0 min 0 W/m 0,0 km/h (0 Bft) 95,74 %
07.11.2020 17:36 11,5 C 9,4 C 6,7 C 81 % 1022,4 hPa 0,0 l/m 0 min 0 min 0 W/m 0,0 km/h (0 Bft) 95,74 %
07.11.2020 17:38 11,5 C 9,4 C 6,7 C 81 % 1022,4 hPa 0,0 l/m 0 min 0 min 0 W/m 3,2 km/h (1 Bft) 95,74 %
07.11.2020 17:40 11,4 C 9,4 C 6,7 C 81 % 1022,4 hPa 0,0 l/m 0 min 0 min 0 W/m 0,0 km/h (0 Bft) 97,83 %
07.11.2020 17:42 11,4 C 9,4 C 6,7 C 81 % 1022,4 hPa 0,0 l/m 0 min 0 min 0 W/m 3,2 km/h (1 Bft) 95,74 %
07.11.2020 17:44 11,3 C 9,4 C 6,7 C 81 % 1022,5 hPa 0,0 l/m 0 min 0 min 0 W/m 0,0 km/h (0 Bft) 97,87 %
07.11.2020 17:46 11,3 C 9,4 C 6,7 C 81 % 1022,4 hPa 0,0 l/m 0 min 0 min 0 W/m 0,0 km/h (0 Bft) 95,74 %
07.11.2020 17:48 11,3 C 10,0 C 6,7 C 81 % 1022,4 hPa 0,0 l/m 0 min 0 min 0 W/m 3,2 km/h (1 Bft) 97,87 %
07.11.2020 17:50 11,2 C 10,0 C 7,2 C 81 % 1022,5 hPa 0,0 l/m 0 min 0 min 0 W/m 0,0 km/h (0 Bft) 97,83 %
07.11.2020 17:52 11,1 C 10,6 C 7,2 C 81 % 1022,4 hPa 0,0 l/m 0 min 0 min 0 W/m 3,2 km/h (1 Bft) 97,87 %
07.11.2020 17:54 11,1 C 10,6 C 7,2 C 81 % 1022,5 hPa 0,0 l/m 0 min 0 min 0 W/m 3,2 km/h (1 Bft) 97,87 %
07.11.2020 17:56 11,1 C 10,6 C 7,2 C 81 % 1022,5 hPa 0,0 l/m 0 min 0 min 0 W/m 6,4 km/h (2 Bft) 95,74 %
07.11.2020 17:58 11,0 C 10,6 C 7,2 C 82 % 1022,5 hPa 0,0 l/m 0 min 0 min 0 W/m 3,2 km/h (1 Bft) 97,87 %
07.11.2020 18:00 11,0 C 10,6 C 7,2 C 82 % 1022,5 hPa 0,0 l/m 0 min 0 min 0 W/m 6,4 km/h (2 Bft) 97,87 %
07.11.2020 18:02 11,0 C 10,6 C 7,8 C 82 % 1022,5 hPa 0,0 l/m 0 min 0 min 0 W/m 6,4 km/h (2 Bft) 98,00 %
07.11.2020 18:04 11,0 C 11,1 C 7,8 C 82 % 1022,5 hPa 0,0 l/m 0 min 0 min 0 W/m 12,9 km/h (3 Bft) 97,87 %
07.11.2020 18:07 11,0 C 11,1 C 8,9 C 81 % 1022,5 hPa 0,0 l/m 0 min 0 min 0 W/m 12,9 km/h (3 Bft) 100,00 %
07.11.2020 18:08 11,0 C 11,1 C 8,9 C 81 % 1022,5 hPa 0,0 l/m 0 min 0 min 0 W/m 3,2 km/h (1 Bft) 95,83 %
07.11.2020 18:10 11,0 C 11,1 C 8,9 C 81 % 1022,5 hPa 0,0 l/m 0 min 0 min 0 W/m 6,4 km/h (2 Bft) 97,87 %
07.11.2020 18:12 11,0 C 11,1 C 8,9 C 81 % 1022,5 hPa 0,0 l/m 0 min 0 min 0 W/m 6,4 km/h (2 Bft) 97,87 %
07.11.2020 18:14 11,0 C 11,1 C 8,9 C 81 % 1022,6 hPa 0,0 l/m 0 min 0 min 0 W/m 12,9 km/h (3 Bft) 97,83 %
07.11.2020 18:16 11,0 C 11,1 C 8,9 C 81 % 1022,6 hPa 0,0 l/m 0 min 0 min 0 W/m 6,4 km/h (2 Bft) 97,87 %
07.11.2020 18:18 11,0 C 11,1 C 8,9 C 81 % 1022,6 hPa 0,0 l/m 0 min 0 min 0 W/m 12,9 km/h (3 Bft) 97,87 %
07.11.2020 18:20 11,1 C 11,1 C 8,9 C 81 % 1022,5 hPa 0,0 l/m 0 min 0 min 0 W/m 12,9 km/h (3 Bft) 100,00 %
07.11.2020 18:22 11,1 C 11,1 C 9,5 C 80 % 1022,6 hPa 0,0 l/m 0 min 0 min 0 W/m 6,4 km/h (2 Bft) 97,87 %
07.11.2020 18:24 11,1 C 11,1 C 9,5 C 80 % 1022,6 hPa 0,0 l/m 0 min 0 min 0 W/m 12,9 km/h (3 Bft) 97,83 %
07.11.2020 18:26 11,1 C 11,1 C 9,5 C 80 % 1022,6 hPa 0,0 l/m 0 min 0 min 0 W/m 12,9 km/h (3 Bft) 97,87 %
07.11.2020 18:28 11,2 C 11,1 C 9,5 C 80 % 1022,6 hPa 0,0 l/m 0 min 0 min 0 W/m 6,4 km/h (2 Bft) 97,87 %
07.11.2020 18:30 11,2 C 11,1 C 9,5 C 80 % 1022,6 hPa 0,0 l/m 0 min 0 min 0 W/m 12,9 km/h (3 Bft) 97,87 %
07.11.2020 18:32 11,3 C 11,1 C 9,5 C 79 % 1022,5 hPa 0,0 l/m 0 min 0 min 0 W/m 12,9 km/h (3 Bft) 97,87 %
07.11.2020 18:34 11,3 C 11,1 C 9,5 C 79 % 1022,6 hPa 0,0 l/m 0 min 0 min 0 W/m 6,4 km/h (2 Bft) 97,87 %
07.11.2020 18:36 11,3 C 10,6 C 9,5 C 79 % 1022,5 hPa 0,0 l/m 0 min 0 min 0 W/m 6,4 km/h (2 Bft) 97,83 %
07.11.2020 18:38 11,3 C 11,1 C 9,5 C 79 % 1022,5 hPa 0,0 l/m 0 min 0 min 0 W/m 12,9 km/h (3 Bft) 95,74 %
07.11.2020 18:40 11,3 C 11,1 C 9,5 C 79 % 1022,5 hPa 0,0 l/m 0 min 0 min 0 W/m 12,9 km/h (3 Bft) 97,87 %
07.11.2020 18:42 11,3 C 10,6 C 9,5 C 78 % 1022,5 hPa 0,0 l/m 0 min 0 min 0 W/m 6,4 km/h (2 Bft) 95,74 %
07.11.2020 18:44 11,4 C 10,6 C 9,5 C 78 % 1022,6 hPa 0,0 l/m 0 min 0 min 0 W/m 6,4 km/h (2 Bft) 97,87 %
07.11.2020 18:46 11,4 C 10,6 C 9,5 C 78 % 1022,6 hPa 0,0 l/m 0 min 0 min 0 W/m 6,4 km/h (2 Bft) 97,87 %
07.11.2020 18:48 11,4 C 10,6 C 9,5 C 78 % 1022,6 hPa 0,0 l/m 0 min 0 min 0 W/m 3,2 km/h (1 Bft) 97,83 %
07.11.2020 18:50 11,4 C 10,6 C 8,9 C 78 % 1022,6 hPa 0,0 l/m 0 min 0 min 0 W/m 6,4 km/h (2 Bft) 95,74 %
07.11.2020 18:52 11,4 C 10,6 C 8,9 C 78 % 1022,6 hPa 0,0 l/m 0 min 0 min 0 W/m 16,1 km/h (3 Bft) 97,87 %
07.11.2020 18:54 11,4 C 10,6 C 8,9 C 78 % 1022,6 hPa 0,0 l/m 0 min 0 min 0 W/m 12,9 km/h (3 Bft) 97,87 %
07.11.2020 18:56 11,4 C 10,6 C 9,5 C 78 % 1022,6 hPa 0,0 l/m 0 min 0 min 0 W/m 12,9 km/h (3 Bft) 95,74 %
07.11.2020 18:58 11,4 C 10,6 C 8,9 C 78 % 1022,6 hPa 0,0 l/m 0 min 0 min 0 W/m 6,4 km/h (2 Bft) 97,87 %
07.11.2020 19:00 11,4 C 10,6 C 8,9 C 78 % 1022,6 hPa 0,0 l/m 0 min 0 min 0 W/m 12,9 km/h (3 Bft) 97,83 %
07.11.2020 19:02 11,4 C 10,6 C 8,9 C 78 % 1022,6 hPa 0,0 l/m 0 min 0 min 0 W/m 12,9 km/h (3 Bft) 95,74 %
07.11.2020 19:04 11,4 C 10,6 C 8,9 C 78 % 1022,6 hPa 0,0 l/m 0 min 0 min 0 W/m 6,4 km/h (2 Bft) 100,00 %
07.11.2020 19:06 11,4 C 10,6 C 8,9 C 78 % 1022,6 hPa 0,0 l/m 0 min 0 min 0 W/m 6,4 km/h (2 Bft) 100,00 %
07.11.2020 19:08 11,4 C 10,6 C 8,9 C 78 % 1022,6 hPa 0,0 l/m 0 min 0 min 0 W/m 6,4 km/h (2 Bft) 100,00 %
07.11.2020 19:10 11,4 C 10,6 C 8,9 C 77 % 1022,6 hPa 0,0 l/m 0 min 0 min 0 W/m 16,1 km/h (3 Bft) 100,00 %
07.11.2020 19:12 11,3 C 10,6 C 9,5 C 77 % 1022,5 hPa 0,0 l/m 0 min 0 min 0 W/m 12,9 km/h (3 Bft) 95,74 %
07.11.2020 19:14 11,3 C 10,6 C 9,5 C 77 % 1022,5 hPa 0,0 l/m 0 min 0 min 0 W/m 19,3 km/h (3 Bft) 100,00 %
07.11.2020 19:16 11,3 C 10,6 C 9,5 C 77 % 1022,5 hPa 0,0 l/m 0 min 0 min 0 W/m 12,9 km/h (3 Bft) 100,00 %
07.11.2020 19:18 11,3 C 10,6 C 9,5 C 77 % 1022,5 hPa 0,0 l/m 0 min 0 min 0 W/m 22,5 km/h (4 Bft) 100,00 %
07.11.2020 19:20 11,3 C 10,6 C 9,5 C 77 % 1022,5 hPa 0,0 l/m 0 min 0 min 0 W/m 16,1 km/h (3 Bft) 100,00 %
07.11.2020 19:22 11,3 C 10,6 C 9,5 C 77 % 1022,5 hPa 0,0 l/m 0 min 0 min 0 W/m 12,9 km/h (3 Bft) 100,00 %
07.11.2020 19:24 11,3 C 10,6 C 8,9 C 77 % 1022,5 hPa 0,0 l/m 0 min 0 min 0 W/m 16,1 km/h (3 Bft) 97,87 %
07.11.2020 19:26 11,3 C 10,6 C 8,9 C 77 % 1022,5 hPa 0,0 l/m 0 min 0 min 0 W/m 3,2 km/h (1 Bft) 97,87 %
07.11.2020 19:28 11,3 C 10,6 C 8,9 C 77 % 1022,5 hPa 0,0 l/m 0 min 0 min 0 W/m 22,5 km/h (4 Bft) 100,00 %
07.11.2020 19:30 11,3 C 10,6 C 8,9 C 77 % 1022,5 hPa 0,0 l/m 0 min 0 min 0 W/m 19,3 km/h (3 Bft) 100,00 %
07.11.2020 19:32 11,3 C 10,6 C 8,9 C 77 % 1022,5 hPa 0,0 l/m 0 min 0 min 0 W/m 12,9 km/h (3 Bft) 100,00 %
07.11.2020 19:34 11,3 C 10,6 C 8,9 C 77 % 1022,6 hPa 0,0 l/m 0 min 0 min 0 W/m 19,3 km/h (3 Bft) 100,00 %
07.11.2020 19:36 11,3 C 10,6 C 8,9 C 77 % 1022,5 hPa 0,0 l/m 0 min 0 min 0 W/m 6,4 km/h (2 Bft) 100,00 %
07.11.2020 19:38 11,3 C 10,6 C 8,9 C 77 % 1022,5 hPa 0,0 l/m 0 min 0 min 0 W/m 16,1 km/h (3 Bft) 100,00 %
07.11.2020 19:40 11,3 C 10,6 C 8,9 C 77 % 1022,5 hPa 0,0 l/m 0 min 0 min 0 W/m 22,5 km/h (4 Bft) 100,00 %
07.11.2020 19:42 11,2 C 10,6 C 8,9 C 77 % 1022,5 hPa 0,0 l/m 0 min 0 min 0 W/m 16,1 km/h (3 Bft) 100,00 %
07.11.2020 19:44 11,2 C 10,6 C 8,9 C 77 % 1022,5 hPa 0,0 l/m 0 min 0 min 0 W/m 16,1 km/h (3 Bft) 100,00 %
07.11.2020 19:46 11,2 C 10,6 C 8,9 C 77 % 1022,6 hPa 0,0 l/m 0 min 0 min 0 W/m 16,1 km/h (3 Bft) 100,00 %
07.11.2020 19:48 11,2 C 10,6 C 8,9 C 77 % 1022,5 hPa 0,0 l/m 0 min 0 min 0 W/m 19,3 km/h (3 Bft) 100,00 %
07.11.2020 19:50 11,2 C 10,6 C 9,5 C 77 % 1022,5 hPa 0,0 l/m 0 min 0 min 0 W/m 19,3 km/h (3 Bft) 100,00 %
07.11.2020 19:52 11,2 C 10,6 C 9,5 C 77 % 1022,5 hPa 0,0 l/m 0 min 0 min 0 W/m 22,5 km/h (4 Bft) 100,00 %
07.11.2020 19:54 11,2 C 10,6 C 9,5 C 77 % 1022,5 hPa 0,0 l/m 0 min 0 min 0 W/m 25,7 km/h (4 Bft) 100,00 %
07.11.2020 19:56 11,3 C 10,6 C 9,5 C 77 % 1022,5 hPa 0,0 l/m 0 min 0 min 0 W/m 19,3 km/h (3 Bft) 95,74 %
07.11.2020 19:58 11,3 C 10,6 C 9,5 C 77 % 1022,5 hPa 0,0 l/m 0 min 0 min 0 W/m 16,1 km/h (3 Bft) 100,00 %
07.11.2020 20:00 11,3 C 10,6 C 9,5 C 77 % 1022,5 hPa 0,0 l/m 0 min 0 min 0 W/m 19,3 km/h (3 Bft) 100,00 %
07.11.2020 20:02 11,3 C 10,6 C 8,9 C 77 % 1022,5 hPa 0,0 l/m 0 min 0 min 0 W/m 16,1 km/h (3 Bft) 100,00 %
07.11.2020 20:04 11,3 C 10,6 C 8,9 C 76 % 1022,5 hPa 0,0 l/m 0 min 0 min 0 W/m 16,1 km/h (3 Bft) 100,00 %
07.11.2020 20:06 11,3 C 10,6 C 8,9 C 76 % 1022,5 hPa 0,0 l/m 0 min 0 min 0 W/m 22,5 km/h (4 Bft) 100,00 %
07.11.2020 20:08 11,2 C 10,6 C 8,9 C 76 % 1022,5 hPa 0,0 l/m 0 min 0 min 0 W/m 19,3 km/h (3 Bft) 97,87 %
07.11.2020 20:10 11,2 C 10,6 C 8,9 C 76 % 1022,5 hPa 0,0 l/m 0 min 0 min 0 W/m 19,3 km/h (3 Bft) 95,74 %
07.11.2020 20:12 11,2 C 10,6 C 8,9 C 76 % 1022,4 hPa 0,0 l/m 0 min 0 min 0 W/m 22,5 km/h (4 Bft) 95,74 %
07.11.2020 20:14 11,2 C 10,6 C 8,9 C 77 % 1022,4 hPa 0,0 l/m 0 min 0 min 0 W/m 22,5 km/h (4 Bft) 94,87 %
07.11.2020 20:16 11,2 C 10,6 C 8,9 C 77 % 1022,4 hPa 0,0 l/m 0 min 0 min 0 W/m 19,3 km/h (3 Bft) 89,36 %
07.11.2020 20:18 11,2 C 10,6 C 8,9 C 77 % 1022,4 hPa 0,0 l/m 0 min 0 min 0 W/m 22,5 km/h (4 Bft) 95,74 %
07.11.2020 20:20 11,1 C 10,0 C 8,9 C 77 % 1022,4 hPa 0,0 l/m 0 min 0 min 0 W/m 19,3 km/h (3 Bft) 95,65 %
07.11.2020 20:22 11,1 C 10,0 C 8,9 C 77 % 1022,4 hPa 0,0 l/m 0 min 0 min 0 W/m 12,9 km/h (3 Bft) 91,49 %
07.11.2020 20:24 11,1 C 10,0 C 8,9 C 77 % 1022,3 hPa 0,0 l/m 0 min 0 min 0 W/m 12,9 km/h (3 Bft) 95,74 %
07.11.2020 20:26 11,1 C 10,0 C 8,4 C 77 % 1022,4 hPa 0,0 l/m 0 min 0 min 0 W/m 12,9 km/h (3 Bft) 95,74 %
07.11.2020 20:28 11,0 C 10,0 C 8,4 C 77 % 1022,4 hPa 0,0 l/m 0 min 0 min 0 W/m 19,3 km/h (3 Bft) 95,74 %
07.11.2020 20:30 11,0 C 10,0 C 8,4 C 77 % 1022,4 hPa 0,0 l/m 0 min 0 min 0 W/m 16,1 km/h (3 Bft) 91,49 %
07.11.2020 20:32 11,0 C 10,0 C 8,4 C 77 % 1022,4 hPa 0,0 l/m 0 min 0 min 0 W/m 16,1 km/h (3 Bft) 95,65 %
07.11.2020 20:34 11,0 C 10,0 C 8,4 C 77 % 1022,3 hPa 0,0 l/m 0 min 0 min 0 W/m 16,1 km/h (3 Bft) 93,62 %
07.11.2020 20:36 10,9 C 10,0 C 8,4 C 77 % 1022,3 hPa 0,0 l/m 0 min 0 min 0 W/m 16,1 km/h (3 Bft) 93,62 %
07.11.2020 20:38 10,9 C 10,0 C 8,4 C 77 % 1022,3 hPa 0,0 l/m 0 min 0 min 0 W/m 12,9 km/h (3 Bft) 93,62 %
07.11.2020 20:40 10,9 C 10,0 C 8,4 C 77 % 1022,4 hPa 0,0 l/m 0 min 0 min 0 W/m 19,3 km/h (3 Bft) 95,74 %
07.11.2020 20:42 10,8 C 10,0 C 8,4 C 77 % 1022,3 hPa 0,0 l/m 0 min 0 min 0 W/m 19,3 km/h (3 Bft) 95,74 %
07.11.2020 20:44 10,8 C 10,0 C 8,4 C 77 % 1022,4 hPa 0,0 l/m 0 min 0 min 0 W/m 16,1 km/h (3 Bft) 95,65 %
07.11.2020 20:46 10,8 C 10,0 C 8,4 C 77 % 1022,4 hPa 0,0 l/m 0 min 0 min 0 W/m 12,9 km/h (3 Bft) 93,62 %
07.11.2020 20:48 10,7 C 9,4 C 8,4 C 78 % 1022,3 hPa 0,0 l/m 0 min 0 min 0 W/m 16,1 km/h (3 Bft) 95,74 %
07.11.2020 20:50 10,7 C 9,4 C 8,4 C 78 % 1022,4 hPa 0,0 l/m 0 min 0 min 0 W/m 19,3 km/h (3 Bft) 95,74 %
07.11.2020 20:52 10,6 C 9,4 C 8,4 C 78 % 1022,3 hPa 0,0 l/m 0 min 0 min 0 W/m 16,1 km/h (3 Bft) 91,49 %
07.11.2020 20:54 10,6 C 9,4 C 8,4 C 78 % 1022,4 hPa 0,0 l/m 0 min 0 min 0 W/m 19,3 km/h (3 Bft) 91,49 %
07.11.2020 20:56 10,6 C 9,4 C 8,4 C 78 % 1022,3 hPa 0,0 l/m 0 min 0 min 0 W/m 12,9 km/h (3 Bft) 93,48 %
07.11.2020 20:58 10,5 C 9,4 C 7,8 C 78 % 1022,4 hPa 0,0 l/m 0 min 0 min 0 W/m 16,1 km/h (3 Bft) 93,62 %
07.11.2020 21:00 10,5 C 9,4 C 7,8 C 78 % 1022,4 hPa 0,0 l/m 0 min 0 min 0 W/m 16,1 km/h (3 Bft) 95,74 %
07.11.2020 21:02 10,5 C 9,4 C 7,8 C 78 % 1022,3 hPa 0,0 l/m 0 min 0 min 0 W/m 12,9 km/h (3 Bft) 93,62 %
07.11.2020 21:04 10,4 C 9,4 C 7,8 C 78 % 1022,3 hPa 0,0 l/m 0 min 0 min 0 W/m 6,4 km/h (2 Bft) 93,62 %
07.11.2020 21:06 10,4 C 9,4 C 7,8 C 78 % 1022,3 hPa 0,0 l/m 0 min 0 min 0 W/m 19,3 km/h (3 Bft) 95,74 %
07.11.2020 21:08 10,4 C 9,4 C 7,8 C 79 % 1022,3 hPa 0,0 l/m 0 min 0 min 0 W/m 16,1 km/h (3 Bft) 95,65 %
07.11.2020 21:10 10,4 C 9,4 C 7,8 C 79 % 1022,3 hPa 0,0 l/m 0 min 0 min 0 W/m 3,2 km/h (1 Bft) 95,74 %
07.11.2020 21:12 10,3 C 9,4 C 7,8 C 79 % 1022,3 hPa 0,0 l/m 0 min 0 min 0 W/m 16,1 km/h (3 Bft) 93,62 %
07.11.2020 21:14 10,3 C 8,9 C 7,8 C 79 % 1022,3 hPa 0,0 l/m 0 min 0 min 0 W/m 16,1 km/h (3 Bft) 95,74 %
07.11.2020 21:16 10,3 C 9,4 C 7,8 C 79 % 1022,4 hPa 0,0 l/m 0 min 0 min 0 W/m 12,9 km/h (3 Bft) 95,74 %
07.11.2020 21:18 10,2 C 8,9 C 7,8 C 79 % 1022,4 hPa 0,0 l/m 0 min 0 min 0 W/m 12,9 km/h (3 Bft) 95,65 %
07.11.2020 21:20 10,2 C 9,4 C 7,8 C 79 % 1022,3 hPa 0,0 l/m 0 min 0 min 0 W/m 19,3 km/h (3 Bft) 97,87 %
07.11.2020 21:22 10,1 C 9,4 C 7,8 C 79 % 1022,3 hPa 0,0 l/m 0 min 0 min 0 W/m 16,1 km/h (3 Bft) 97,87 %
07.11.2020 21:24 10,1 C 9,4 C 7,8 C 79 % 1022,4 hPa 0,0 l/m 0 min 0 min 0 W/m 6,4 km/h (2 Bft) 97,87 %
07.11.2020 21:26 10,1 C 8,9 C 7,8 C 79 % 1022,5 hPa 0,0 l/m 0 min 0 min 0 W/m 3,2 km/h (1 Bft) 97,87 %
07.11.2020 21:28 10,1 C 8,9 C 7,8 C 79 % 1022,4 hPa 0,0 l/m 0 min 0 min 0 W/m 3,2 km/h (1 Bft) 95,74 %
07.11.2020 21:30 10,1 C 8,9 C 7,8 C 79 % 1022,5 hPa 0,0 l/m 0 min 0 min 0 W/m 3,2 km/h (1 Bft) 97,83 %
07.11.2020 21:32 10,0 C 8,9 C 7,8 C 79 % 1022,6 hPa 0,0 l/m 0 min 0 min 0 W/m 3,2 km/h (1 Bft) 97,87 %
07.11.2020 21:34 10,0 C 8,9 C 7,8 C 79 % 1022,5 hPa 0,0 l/m 0 min 0 min 0 W/m 3,2 km/h (1 Bft) 97,87 %
07.11.2020 21:36 10,0 C 8,9 C 7,8 C 79 % 1022,5 hPa 0,0 l/m 0 min 0 min 0 W/m 6,4 km/h (2 Bft) 97,87 %
07.11.2020 21:38 10,0 C 8,9 C 7,8 C 79 % 1022,5 hPa 0,0 l/m 0 min 0 min 0 W/m 6,4 km/h (2 Bft) 100,00 %
07.11.2020 21:40 10,0 C 9,4 C 7,8 C 79 % 1022,5 hPa 0,0 l/m 0 min 0 min 0 W/m 19,3 km/h (3 Bft) 100,00 %
07.11.2020 21:42 10,0 C 9,4 C 7,8 C 79 % 1022,6 hPa 0,0 l/m 0 min 0 min 0 W/m 22,5 km/h (4 Bft) 100,00 %
07.11.2020 21:44 10,0 C 9,4 C 7,8 C 79 % 1022,6 hPa 0,0 l/m 0 min 0 min 0 W/m 0,0 km/h (0 Bft) 97,87 %
07.11.2020 21:46 10,0 C 9,4 C 7,8 C 79 % 1022,6 hPa 0,0 l/m 0 min 0 min 0 W/m 12,9 km/h (3 Bft) 97,87 %
07.11.2020 21:48 10,0 C 9,4 C 7,8 C 79 % 1022,6 hPa 0,0 l/m 0 min 0 min 0 W/m 12,9 km/h (3 Bft) 100,00 %
07.11.2020 21:50 10,0 C 9,4 C 7,8 C 79 % 1022,6 hPa 0,0 l/m 0 min 0 min 0 W/m 6,4 km/h (2 Bft) 100,00 %
07.11.2020 21:52 9,9 C 9,4 C 7,8 C 79 % 1022,5 hPa 0,0 l/m 0 min 0 min 0 W/m 6,4 km/h (2 Bft) 100,00 %
07.11.2020 21:54 9,9 C 9,4 C 7,8 C 79 % 1022,5 hPa 0,0 l/m 0 min 0 min 0 W/m 16,1 km/h (3 Bft) 100,00 %
07.11.2020 21:56 9,9 C 9,4 C 7,8 C 79 % 1022,5 hPa 0,0 l/m 0 min 0 min 0 W/m 16,1 km/h (3 Bft) 100,00 %
07.11.2020 21:58 9,9 C 9,4 C 7,8 C 79 % 1022,6 hPa 0,0 l/m 0 min 0 min 0 W/m 16,1 km/h (3 Bft) 100,00 %
07.11.2020 22:00 9,9 C 8,9 C 7,8 C 79 % 1022,5 hPa 0,0 l/m 0 min 0 min 0 W/m 6,4 km/h (2 Bft) 100,00 %
07.11.2020 22:02 9,9 C 8,9 C 7,8 C 79 % 1022,5 hPa 0,0 l/m 0 min 0 min 0 W/m 3,2 km/h (1 Bft) 100,00 %
07.11.2020 22:04 9,9 C 8,9 C 7,8 C 79 % 1022,5 hPa 0,0 l/m 0 min 0 min 0 W/m 3,2 km/h (1 Bft) 100,00 %
07.11.2020 22:06 9,9 C 8,9 C 7,8 C 79 % 1022,5 hPa 0,0 l/m 0 min 0 min 0 W/m 6,4 km/h (2 Bft) 100,00 %
07.11.2020 22:08 9,9 C 8,9 C 7,8 C 79 % 1022,5 hPa 0,0 l/m 0 min 0 min 0 W/m 12,9 km/h (3 Bft) 100,00 %
07.11.2020 22:10 9,9 C 8,9 C 7,8 C 79 % 1022,4 hPa 0,0 l/m 0 min 0 min 0 W/m 6,4 km/h (2 Bft) 100,00 %
07.11.2020 22:12 9,9 C 8,9 C 7,8 C 79 % 1022,5 hPa 0,0 l/m 0 min 0 min 0 W/m 3,2 km/h (1 Bft) 100,00 %
07.11.2020 22:14 9,9 C 8,9 C 7,2 C 79 % 1022,4 hPa 0,0 l/m 0 min 0 min 0 W/m 3,2 km/h (1 Bft) 100,00 %
07.11.2020 22:16 9,8 C 8,9 C 7,2 C 79 % 1022,4 hPa 0,0 l/m 0 min 0 min 0 W/m 3,2 km/h (1 Bft) 100,00 %
07.11.2020 22:18 9,8 C 8,3 C 7,2 C 79 % 1022,5 hPa 0,0 l/m 0 min 0 min 0 W/m 6,4 km/h (2 Bft) 97,83 %
07.11.2020 22:20 9,8 C 8,3 C 7,2 C 79 % 1022,4 hPa 0,0 l/m 0 min 0 min 0 W/m 3,2 km/h (1 Bft) 100,00 %
07.11.2020 22:22 9,8 C 8,9 C 7,2 C 79 % 1022,5 hPa 0,0 l/m 0 min 0 min 0 W/m 6,4 km/h (2 Bft) 100,00 %
07.11.2020 22:24 9,8 C 8,9 C 7,2 C 79 % 1022,5 hPa 0,0 l/m 0 min 0 min 0 W/m 0,0 km/h (0 Bft) 100,00 %
07.11.2020 22:26 9,7 C 8,9 C 7,2 C 80 % 1022,5 hPa 0,0 l/m 0 min 0 min 0 W/m 3,2 km/h (1 Bft) 100,00 %
07.11.2020 22:28 9,7 C 8,9 C 7,2 C 80 % 1022,5 hPa 0,0 l/m 0 min 0 min 0 W/m 6,4 km/h (2 Bft) 100,00 %
07.11.2020 22:30 9,7 C 8,9 C 7,2 C 80 % 1022,5 hPa 0,0 l/m 0 min 0 min 0 W/m 12,9 km/h (3 Bft) 100,00 %
07.11.2020 22:32 9,6 C 8,9 C 7,2 C 80 % 1022,6 hPa 0,0 l/m 0 min 0 min 0 W/m 19,3 km/h (3 Bft) 100,00 %
07.11.2020 22:34 9,6 C 8,9 C 7,2 C 80 % 1022,6 hPa 0,0 l/m 0 min 0 min 0 W/m 19,3 km/h (3 Bft) 100,00 %
07.11.2020 22:36 9,6 C 8,9 C 7,8 C 80 % 1022,6 hPa 0,0 l/m 0 min 0 min 0 W/m 6,4 km/h (2 Bft) 97,87 %
07.11.2020 22:38 9,6 C 8,9 C 7,8 C 80 % 1022,6 hPa 0,0 l/m 0 min 0 min 0 W/m 12,9 km/h (3 Bft) 100,00 %
07.11.2020 22:40 9,6 C 8,9 C 7,8 C 80 % 1022,5 hPa 0,0 l/m 0 min 0 min 0 W/m 12,9 km/h (3 Bft) 95,65 %
07.11.2020 22:42 9,6 C 8,9 C 7,8 C 80 % 1022,6 hPa 0,0 l/m 0 min 0 min 0 W/m 3,2 km/h (1 Bft) 100,00 %
07.11.2020 22:44 9,6 C 8,9 C 7,2 C 80 % 1022,5 hPa 0,0 l/m 0 min 0 min 0 W/m 6,4 km/h (2 Bft) 100,00 %
07.11.2020 22:46 9,6 C 8,3 C 7,2 C 80 % 1022,5 hPa 0,0 l/m 0 min 0 min 0 W/m 6,4 km/h (2 Bft) 100,00 %
07.11.2020 22:48 9,5 C 8,3 C 7,2 C 80 % 1022,5 hPa 0,0 l/m 0 min 0 min 0 W/m 12,9 km/h (3 Bft) 97,87 %
07.11.2020 22:50 9,5 C 8,3 C 7,2 C 80 % 1022,6 hPa 0,0 l/m 0 min 0 min 0 W/m 12,9 km/h (3 Bft) 100,00 %
07.11.2020 22:52 9,5 C 8,3 C 7,2 C 80 % 1022,6 hPa 0,0 l/m 0 min 0 min 0 W/m 12,9 km/h (3 Bft) 97,83 %
07.11.2020 22:54 9,5 C 8,3 C 7,2 C 80 % 1022,6 hPa 0,0 l/m 0 min 0 min 0 W/m 12,9 km/h (3 Bft) 100,00 %
07.11.2020 22:56 9,5 C 8,3 C 7,2 C 80 % 1022,6 hPa 0,0 l/m 0 min 0 min 0 W/m 19,3 km/h (3 Bft) 95,74 %
07.11.2020 22:58 9,5 C 8,3 C 7,2 C 80 % 1022,6 hPa 0,0 l/m 0 min 0 min 0 W/m 12,9 km/h (3 Bft) 100,00 %
07.11.2020 23:00 9,5 C 8,3 C 7,2 C 80 % 1022,6 hPa 0,0 l/m 0 min 0 min 0 W/m 12,9 km/h (3 Bft) 100,00 %
07.11.2020 23:02 9,5 C 8,3 C 7,2 C 80 % 1022,6 hPa 0,0 l/m 0 min 0 min 0 W/m 6,4 km/h (2 Bft) 100,00 %
07.11.2020 23:04 9,5 C 8,3 C 7,2 C 80 % 1022,6 hPa 0,0 l/m 0 min 0 min 0 W/m 6,4 km/h (2 Bft) 100,00 %
07.11.2020 23:06 9,4 C 8,3 C 7,2 C 80 % 1022,6 hPa 0,0 l/m 0 min 0 min 0 W/m 6,4 km/h (2 Bft) 97,87 %
07.11.2020 23:08 9,4 C 8,3 C 7,2 C 80 % 1022,6 hPa 0,0 l/m 0 min 0 min 0 W/m 6,4 km/h (2 Bft) 100,00 %
07.11.2020 23:10 9,4 C 8,3 C 7,2 C 80 % 1022,6 hPa 0,0 l/m 0 min 0 min 0 W/m 3,2 km/h (1 Bft) 95,74 %
07.11.2020 23:12 9,4 C 8,3 C 7,2 C 80 % 1022,6 hPa 0,0 l/m 0 min 0 min 0 W/m 6,4 km/h (2 Bft) 93,62 %
07.11.2020 23:14 9,4 C 8,3 C 7,2 C 80 % 1022,6 hPa 0,0 l/m 0 min 0 min 0 W/m 12,9 km/h (3 Bft) 97,87 %
07.11.2020 23:16 9,3 C 8,3 C 7,2 C 80 % 1022,6 hPa 0,0 l/m 0 min 0 min 0 W/m 6,4 km/h (2 Bft) 97,83 %
07.11.2020 23:18 9,3 C 8,3 C 7,2 C 80 % 1022,6 hPa 0,0 l/m 0 min 0 min 0 W/m 12,9 km/h (3 Bft) 97,87 %
07.11.2020 23:20 9,3 C 8,3 C 7,2 C 80 % 1022,7 hPa 0,0 l/m 0 min 0 min 0 W/m 6,4 km/h (2 Bft) 97,87 %
07.11.2020 23:22 9,3 C 8,3 C 7,2 C 80 % 1022,7 hPa 0,0 l/m 0 min 0 min 0 W/m 6,4 km/h (2 Bft) 93,62 %
07.11.2020 23:24 9,3 C 8,3 C 7,2 C 80 % 1022,6 hPa 0,0 l/m 0 min 0 min 0 W/m 12,9 km/h (3 Bft) 93,62 %
07.11.2020 23:26 9,3 C 8,3 C 7,2 C 81 % 1022,6 hPa 0,0 l/m 0 min 0 min 0 W/m 6,4 km/h (2 Bft) 93,48 %
07.11.2020 23:28 9,2 C 8,3 C 7,2 C 81 % 1022,6 hPa 0,0 l/m 0 min 0 min 0 W/m 12,9 km/h (3 Bft) 91,49 %
07.11.2020 23:30 9,2 C 8,3 C 6,7 C 81 % 1022,6 hPa 0,0 l/m 0 min 0 min 0 W/m 6,4 km/h (2 Bft) 95,74 %
07.11.2020 23:32 9,2 C 8,3 C 6,7 C 81 % 1022,5 hPa 0,0 l/m 0 min 0 min 0 W/m 12,9 km/h (3 Bft) 48,78 %
07.11.2020 23:34 9,1 C 8,3 C 6,7 C 81 % 1022,5 hPa 0,0 l/m 0 min 0 min 0 W/m 12,9 km/h (3 Bft) 95,74 %
07.11.2020 23:36 9,1 C 8,3 C 6,7 C 81 % 1022,6 hPa 0,0 l/m 0 min 0 min 0 W/m 6,4 km/h (2 Bft) 95,74 %
07.11.2020 23:38 9,1 C 7,8 C 6,7 C 81 % 1022,6 hPa 0,0 l/m 0 min 0 min 0 W/m 6,4 km/h (2 Bft) 93,48 %
07.11.2020 23:40 9,1 C 8,3 C 6,7 C 81 % 1022,6 hPa 0,0 l/m 0 min 0 min 0 W/m 6,4 km/h (2 Bft) 95,74 %
07.11.2020 23:42 9,1 C 7,8 C 6,7 C 81 % 1022,6 hPa 0,0 l/m 0 min 0 min 0 W/m 3,2 km/h (1 Bft) 93,62 %
07.11.2020 23:44 9,0 C 7,8 C 6,7 C 81 % 1022,5 hPa 0,0 l/m 0 min 0 min 0 W/m 0,0 km/h (0 Bft) 91,49 %
07.11.2020 23:46 9,0 C 7,8 C 6,7 C 81 % 1022,7 hPa 0,0 l/m 0 min 0 min 0 W/m 0,0 km/h (0 Bft) 95,74 %
07.11.2020 23:48 9,0 C 7,8 C 6,7 C 81 % 1022,6 hPa 0,0 l/m 0 min 0 min 0 W/m 0,0 km/h (0 Bft) 95,74 %
07.11.2020 23:50 9,0 C 7,8 C 6,7 C 81 % 1022,7 hPa 0,0 l/m 0 min 0 min 0 W/m 0,0 km/h (0 Bft) 95,65 %
07.11.2020 23:52 9,0 C 7,8 C 6,7 C 81 % 1022,7 hPa 0,0 l/m 0 min 0 min 0 W/m 0,0 km/h (0 Bft) 95,74 %
07.11.2020 23:54 9,0 C 7,8 C 6,7 C 81 % 1022,7 hPa 0,0 l/m 0 min 0 min 0 W/m 0,0 km/h (0 Bft) 93,62 %
07.11.2020 23:56 8,9 C 7,8 C 6,7 C 81 % 1022,7 hPa 0,0 l/m 0 min 0 min 0 W/m 3,2 km/h (1 Bft) 93,62 %
07.11.2020 23:58 8,9 C 7,8 C 6,7 C 81 % 1022,7 hPa 0,0 l/m 0 min 0 min 0 W/m 0,0 km/h (0 Bft) 95,74 %
_ Min-Zeit 03:48 03:12 03:06 14:56 20:24 - - - - 02:14 23:32
Minimum _ 5,9 C 5,0 C 3,9 C 67 % 1022,3 hPa - - - - 0,0 km/h (0 Bft) 48,78 %
_ Max-Zeit 14:48 12:54 14:14 06:20 00:00 00:00 12:07 00:00 12:40 09:06 00:04
Maximum _ 15,9 C 19,4 C 12,8 C 83 % 1026,9 hPa 0,0 l/m 3 min 0 min 377 W/m 35,4 km/h
SO (5 Bft)
100,00 %
Durchschnitt _ 9,7 C 9,8 C 7,4 C 78 % 1024,3 hPa #0,0 l/m #6:12 h #0 min. 193 W/m 12,8 km/h (3 Bft) 97,31 %
© 2020 W. Hausmann